GW3448 Weather Reports


Display with metric or nautical units.
time (UTC)temp
F
wind
direction
speed
MPH
gust
MPH
rain 1hr
in
rain 24hr
in
rain mn
in
humidity
%
barometer
mb
20260831210756 81 336 2.0 6.0 0.00 0.00 0.00 36 1009.9
20260831210732 81 352 2.0 6.0 0.00 0.00 0.00 36 1009.9
20260831210713 81 318 2.0 6.0 0.00 0.00 0.00 36 1009.9
20260831210408 80 33 2.0 6.0 0.00 0.00 0.00 37 1010.1
20260831210115 80 350 3.0 6.0 0.00 0.00 0.00 37 1010.1
20260831205809 80 24 3.0 6.0 0.00 0.00 0.00 38 1010.1
20260831205748 80 352 4.0 8.0 0.00 0.00 0.00 38 1010.2
20260831205726 80 276 4.0 8.0 0.00 0.00 0.00 37 1010.2
20260831205703 80 291 3.0 8.0 0.00 0.00 0.00 37 1010.3
20260831205049 80 5 3.0 8.0 0.00 0.00 0.00 37 1010.3
20260831204949 80 296 3.0 8.0 0.00 0.00 0.00 36 1010.3
20260831204850 80 305 4.0 8.0 0.00 0.00 0.00 35 1010.4
20260831204754 80 269 4.0 8.0 0.00 0.00 0.00 36 1010.3
20260831204647 80 299 3.0 8.0 0.00 0.00 0.00 36 1010.4
20260831204603 80 333 3.0 6.0 0.00 0.00 0.00 36 1010.4
20260831204540 80 80 2.0 6.0 0.00 0.00 0.00 36 1010.4
20260831204519 80 0 1.0 7.0 0.00 0.00 0.00 36 1010.5
20260831204144 79 262 2.0 8.0 0.00 0.00 0.00 36 1010.5
20260831204100 79 235 2.0 8.0 0.00 0.00 0.00 36 1010.5
20260831204037 79 287 3.0 8.0 0.00 0.00 0.00 38 1010.5
20260831204014 79 288 3.0 8.0 0.00 0.00 0.00 37 1010.6
20260831203637 79 352 3.0 8.0 0.00 0.00 0.00 37 1010.6
20260831203555 79 318 4.0 8.0 0.00 0.00 0.00 37 1010.5
20260831203533 79 296 4.0 8.0 0.00 0.00 0.00 37 1010.5
20260831203512 79 270 3.0 8.0 0.00 0.00 0.00 37 1010.6
20260831203133 79 276 3.0 6.0 0.00 0.00 0.00 36 1010.6
20260831203033 79 306 3.0 6.0 0.00 0.00 0.00 37 1010.7
20260831202932 79 311 3.0 6.0 0.00 0.00 0.00 36 1010.7
20260831202830 79 265 3.0 6.0 0.00 0.00 0.00 38 1010.7
20260831202741 79 336 4.0 6.0 0.00 0.00 0.00 37 1010.6
20260831202629 79 26 3.0 6.0 0.00 0.00 0.00 38 1010.7
20260831202531 79 341 2.0 6.0 0.00 0.00 0.00 38 1010.7
20260831202430 79 331 3.0 6.0 0.00 0.00 0.00 38 1010.7
20260831202353 78 314 2.0 6.0 0.00 0.00 0.00 38 1010.7
20260831202331 78 261 1.0 6.0 0.00 0.00 0.00 39 1010.7
20260831202258 78 330 1.0 6.0 0.00 0.00 0.00 37 1010.8
20260831201929 78 36 2.0 6.0 0.00 0.00 0.00 40 1010.8
20260831201828 78 9 1.0 6.0 0.00 0.00 0.00 40 1010.8
20260831201735 78 299 2.0 6.0 0.00 0.00 0.00 40 1010.8
20260831201629 78 317 3.0 6.0 0.00 0.00 0.00 38 1010.9
20260831201532 78 310 2.0 6.0 0.00 0.00 0.00 38 1010.9
20260831201429 78 269 2.0 6.0 0.00 0.00 0.00 39 1010.9
20260831201328 78 259 2.0 6.0 0.00 0.00 0.00 40 1011.0
20260831201234 78 24 2.0 6.0 0.00 0.00 0.00 38 1011.0
20260831201128 77 96 2.0 6.0 0.00 0.00 0.00 37 1011.0
20260831201029 77 11 1.0 6.0 0.00 0.00 0.00 39 1011.0
20260831200929 77 308 2.0 6.0 0.00 0.00 0.00 39 1011.0
20260831200829 77 71 2.0 6.0 0.00 0.00 0.00 39 1011.1
20260831200731 77 334 3.0 6.0 0.00 0.00 0.00 38 1011.1
20260831200647 77 285 4.0 6.0 0.00 0.00 0.00 39 1011.1
20260831200623 77 283 3.0 6.0 0.00 0.00 0.00 39 1011.1
20260831200553 77 0 2.0 6.0 0.00 0.00 0.00 39 1011.2
20260831200532 76 351 3.0 6.0 0.00 0.00 0.00 38 1011.2
20260831200510 76 325 3.0 6.0 0.00 0.00 0.00 41 1011.2
20260831200206 76 17 3.0 7.0 0.00 0.00 0.00 39 1011.3
20260831200143 76 348 3.0 7.0 0.00 0.00 0.00 41 1011.3
20260831195849 76 311 3.0 8.0 0.00 0.00 0.00 41 1011.3
20260831195815 76 268 2.0 8.0 0.00 0.00 0.00 41 1011.3
20260831195521 76 80 3.0 9.0 0.00 0.00 0.00 41 1011.3
20260831195459 76 5 4.0 9.0 0.00 0.00 0.00 40 1011.4
20260831195131 76 73 3.0 9.0 0.00 0.00 0.00 41 1011.4
20260831195029 76 343 3.0 9.0 0.00 0.00 0.00 41 1011.5
20260831194955 76 69 4.0 9.0 0.00 0.00 0.00 41 1011.5
20260831194933 76 309 4.0 9.0 0.00 0.00 0.00 41 1011.5
20260831194912 76 332 4.0 9.0 0.00 0.00 0.00 41 1011.6
20260831194552 76 30 3.0 9.0 0.00 0.00 0.00 42 1011.6
20260831194528 76 27 2.0 5.0 0.00 0.00 0.00 42 1011.6
20260831194509 76 280 2.0 5.0 0.00 0.00 0.00 43 1011.7
20260831194449 76 350 2.0 5.0 0.00 0.00 0.00 44 1011.7
20260831194416 76 60 1.0 6.0 0.00 0.00 0.00 43 1011.7
20260831194122 76 32 3.0 7.0 0.00 0.00 0.00 41 1011.7
20260831194103 76 61 2.0 7.0 0.00 0.00 0.00 41 1011.7
20260831194040 76 33 2.0 7.0 0.00 0.00 0.00 43 1011.8
20260831193429 75 290 1.0 7.0 0.00 0.00 0.00 44 1011.8
20260831193330 75 63 2.0 7.0 0.00 0.00 0.00 43 1011.8
20260831193231 75 74 3.0 7.0 0.00 0.00 0.00 43 1011.9
20260831193129 75 71 3.0 7.0 0.00 0.00 0.00 42 1011.9
20260831193043 75 95 4.0 6.0 0.00 0.00 0.00 42 1011.9
20260831193019 75 82 3.0 5.0 0.00 0.00 0.00 43 1011.9
20260831192959 75 26 3.0 5.0 0.00 0.00 0.00 42 1011.9
20260831192629 75 348 2.0 5.0 0.00 0.00 0.00 44 1012.0
20260831192531 75 324 2.0 5.0 0.00 0.00 0.00 44 1012.0
20260831192428 75 334 1.0 5.0 0.00 0.00 0.00 45 1012.0
20260831192331 74 344 2.0 5.0 0.00 0.00 0.00 45 1012.0
20260831192229 74 328 2.0 5.0 0.00 0.00 0.00 43 1012.1
20260831192122 74 5 2.0 5.0 0.00 0.00 0.00 44 1012.1
20260831192057 74 352 2.0 5.0 0.00 0.00 0.00 43 1012.2
20260831192035 74 0 2.0 5.0 0.00 0.00 0.00 43 1012.2
20260831192015 74 274 3.0 5.0 0.00 0.00 0.00 44 1012.2
20260831191953 74 352 3.0 9.0 0.00 0.00 0.00 44 1012.3
20260831191916 74 345 2.0 9.0 0.00 0.00 0.00 46 1012.3
20260831191338 74 14 1.0 9.0 0.00 0.00 0.00 45 1012.4
20260831191315 74 251 2.0 9.0 0.00 0.00 0.00 45 1012.4
20260831191242 74 302 2.0 9.0 0.00 0.00 0.00 45 1012.4
20260831190921 74 300 3.0 9.0 0.00 0.00 0.00 47 1012.4
20260831190901 74 300 2.0 9.0 0.00 0.00 0.00 46 1012.5
20260831190838 73 66 2.0 8.0 0.00 0.00 0.00 44 1012.5
20260831190804 73 315 3.0 8.0 0.00 0.00 0.00 44 1012.5
20260831190741 74 33 3.0 8.0 0.00 0.00 0.00 45 1012.6
20260831190719 74 343 4.0 8.0 0.00 0.00 0.00 45 1012.6
20260831190658 74 348 3.0 8.0 0.00 0.00 0.00 45 1012.6
20260831190353 73 5 1.0 8.0 0.00 0.00 0.00 45 1012.6
20260831190330 73 296 1.0 8.0 0.00 0.00 0.00 45 1012.6
20260831185806 73 348 4.0 8.0 0.00 0.00 0.00 45 1012.6
20260831185733 73 295 4.0 8.0 0.00 0.00 0.00 45 1012.6
20260831185401 73 303 4.0 8.0 0.00 0.00 0.00 46 1012.6
20260831185306 73 304 4.0 8.0 0.00 0.00 0.00 47 1012.6
20260831185244 73 336 4.0 8.0 0.00 0.00 0.00 46 1012.6
20260831185210 73 302 3.0 8.0 0.00 0.00 0.00 47 1012.6
20260831185149 73 296 3.0 7.0 0.00 0.00 0.00 47 1012.6
20260831185128 73 303 2.0 9.0 0.00 0.00 0.00 47 1012.7
20260831185108 73 298 1.0 9.0 0.00 0.00 0.00 47 1012.7
20260831185046 73 285 2.0 9.0 0.00 0.00 0.00 49 1012.7
20260831185014 73 26 4.0 9.0 0.00 0.00 0.00 48 1012.7
20260831184951 72 310 4.0 9.0 0.00 0.00 0.00 47 1012.7
20260831184931 72 0 3.0 9.0 0.00 0.00 0.00 48 1012.7
20260831184641 72 302 4.0 9.0 0.00 0.00 0.00 48 1012.7
20260831184606 72 22 4.0 9.0 0.00 0.00 0.00 47 1012.7
20260831184547 72 346 2.0 9.0 0.00 0.00 0.00 48 1012.8
20260831184258 72 42 3.0 8.0 0.00 0.00 0.00 48 1012.8
20260831184234 72 0 3.0 8.0 0.00 0.00 0.00 48 1012.8
20260831183431 72 335 4.0 6.0 0.00 0.00 0.00 47 1012.9
20260831183101 72 13 3.0 6.0 0.00 0.00 0.00 48 1012.9
20260831183015 72 335 3.0 6.0 0.00 0.00 0.00 48 1012.9
20260831182952 72 350 2.0 6.0 0.00 0.00 0.00 47 1012.9
20260831182933 72 19 2.0 6.0 0.00 0.00 0.00 48 1012.9
20260831182602 71 309 3.0 6.0 0.00 0.00 0.00 47 1013.0
20260831182501 71 352 2.0 6.0 0.00 0.00 0.00 47 1013.0
20260831182402 71 350 2.0 6.0 0.00 0.00 0.00 48 1013.0
20260831182300 71 302 2.0 6.0 0.00 0.00 0.00 48 1013.1
20260831182203 71 26 2.0 6.0 0.00 0.00 0.00 48 1013.0
20260831182104 71 49 3.0 6.0 0.00 0.00 0.00 47 1013.0
20260831182003 71 40 3.0 6.0 0.00 0.00 0.00 49 1013.0
20260831181901 71 40 3.0 6.0 0.00 0.00 0.00 47 1013.0
20260831181802 71 24 3.0 5.0 0.00 0.00 0.00 47 1013.1
20260831181731 71 17 3.0 5.0 0.00 0.00 0.00 47 1013.1
20260831181655 71 342 2.0 5.0 0.00 0.00 0.00 47 1013.1
20260831181633 71 33 2.0 8.0 0.00 0.00 0.00 47 1013.1
20260831181301 71 292 3.0 8.0 0.00 0.00 0.00 47 1013.1
20260831181203 71 304 3.0 8.0 0.00 0.00 0.00 47 1013.2
20260831181105 71 315 3.0 8.0 0.00 0.00 0.00 47 1013.2
20260831181036 70 317 2.0 8.0 0.00 0.00 0.00 49 1013.2
20260831181015 70 316 2.0 8.0 0.00 0.00 0.00 49 1013.2
20260831180953 70 297 3.0 8.0 0.00 0.00 0.00 47 1013.2
20260831180932 70 345 3.0 8.0 0.00 0.00 0.00 49 1013.2
20260831180858 70 320 1.0 8.0 0.00 0.00 0.00 49 1013.2
20260831180833 70 304 1.0 8.0 0.00 0.00 0.00 50 1013.2
20260831180814 70 17 2.0 8.0 0.00 0.00 0.00 48 1013.2
20260831180523 70 61 3.0 8.0 0.00 0.00 0.00 49 1013.2
20260831180218 70 19 4.0 8.0 0.00 0.00 0.00 49 1013.2
20260831180157 70 348 4.0 8.0 0.00 0.00 0.00 50 1013.3
20260831180136 70 63 3.0 6.0 0.00 0.00 0.00 48 1013.3
20260831175834 70 337 2.0 7.0 0.00 0.00 0.00 50 1013.3
20260831175539 70 321 2.0 7.0 0.00 0.00 0.00 48 1013.3
20260831175517 70 67 2.0 7.0 0.00 0.00 0.00 48 1013.3
20260831175455 69 69 2.0 7.0 0.00 0.00 0.00 48 1013.4
20260831175421 69 50 2.0 7.0 0.00 0.00 0.00 49 1013.4
20260831175400 69 349 2.0 7.0 0.00 0.00 0.00 49 1013.4
20260831175341 69 28 3.0 7.0 0.00 0.00 0.00 49 1013.4
20260831175049 69 65 2.0 5.0 0.00 0.00 0.00 48 1013.4
20260831174743 69 16 2.0 5.0 0.00 0.00 0.00 50 1013.4
20260831174144 69 352 2.0 8.0 0.00 0.00 0.00 50 1013.4
20260831174044 69 29 2.0 8.0 0.00 0.00 0.00 50 1013.4
20260831173938 68 52 1.0 8.0 0.00 0.00 0.00 50 1013.5
20260831173847 68 344 1.0 8.0 0.00 0.00 0.00 50 1013.4
20260831173824 68 140 2.0 8.0 0.00 0.00 0.00 49 1013.4
20260831173802 68 43 3.0 8.0 0.00 0.00 0.00 51 1013.5
20260831173727 68 342 3.0 8.0 0.00 0.00 0.00 50 1013.5
20260831173700 68 5 3.0 8.0 0.00 0.00 0.00 50 1013.6
20260831173640 68 339 4.0 8.0 0.00 0.00 0.00 51 1013.6
20260831173618 68 305 3.0 7.0 0.00 0.00 0.00 50 1013.6
20260831173557 68 296 2.0 7.0 0.00 0.00 0.00 52 1013.6
20260831173249 67 344 2.0 5.0 0.00 0.00 0.00 52 1013.6
20260831172959 67 268 1.0 6.0 0.00 0.00 0.00 52 1013.6
20260831172655 67 339 2.0 6.0 0.00 0.00 0.00 51 1013.6
20260831172358 67 266 2.0 6.0 0.00 0.00 0.00 52 1013.6
20260831172336 67 352 2.0 6.0 0.00 0.00 0.00 52 1013.7
20260831172316 66 19 2.0 6.0 0.00 0.00 0.00 53 1013.7
20260831172242 66 318 3.0 6.0 0.00 0.00 0.00 51 1013.7
20260831172221 66 323 4.0 6.0 0.00 0.00 0.00 50 1013.7
20260831171932 66 352 2.0 4.0 0.00 0.00 0.00 52 1013.7
20260831171912 66 32 2.0 4.0 0.00 0.00 0.00 52 1013.7
20260831171605 66 348 2.0 4.0 0.00 0.00 0.00 51 1013.8
20260831171544 66 338 2.0 4.0 0.00 0.00 0.00 52 1013.7
20260831171524 66 352 2.0 6.0 0.00 0.00 0.00 52 1013.8
20260831171502 66 302 2.0 7.0 0.00 0.00 0.00 53 1013.8
20260831171428 65 319 2.0 8.0 0.00 0.00 0.00 51 1013.8
20260831171138 65 0 2.0 8.0 0.00 0.00 0.00 53 1013.8
20260831171116 65 334 2.0 8.0 0.00 0.00 0.00 52 1013.8
20260831171056 65 323 2.0 8.0 0.00 0.00 0.00 52 1013.8
20260831170749 65 303 2.0 8.0 0.00 0.00 0.00 52 1013.9
20260831170730 65 352 3.0 8.0 0.00 0.00 0.00 53 1013.9
20260831170443 65 313 3.0 8.0 0.00 0.00 0.00 51 1013.9
20260831170136 65 263 3.0 8.0 0.00 0.00 0.00 51 1013.9
20260831170114 64 352 2.0 8.0 0.00 0.00 0.00 53 1013.8
20260831170054 64 340 2.0 8.0 0.00 0.00 0.00 53 1013.8
20260831165748 64 342 2.0 8.0 0.00 0.00 0.00 53 1013.9
20260831165728 64 325 3.0 6.0 0.00 0.00 0.00 53 1013.9
20260831165706 64 341 3.0 6.0 0.00 0.00 0.00 54 1013.9
20260831165646 64 352 2.0 6.0 0.00 0.00 0.00 55 1013.9
20260831164800 64 336 2.0 7.0 0.00 0.00 0.00 54 1013.9
20260831164700 64 331 2.0 7.0 0.00 0.00 0.00 54 1014.0
20260831164630 64 316 1.0 7.0 0.00 0.00 0.00 53 1014.0
20260831164552 64 352 1.0 7.0 0.00 0.00 0.00 55 1014.0
20260831164531 64 333 2.0 7.0 0.00 0.00 0.00 54 1014.0
20260831164201 64 314 3.0 7.0 0.00 0.00 0.00 55 1014.0
20260831164100 64 5 3.0 7.0 0.00 0.00 0.00 54 1014.0
20260831164001 64 21 4.0 7.0 0.00 0.00 0.00 54 1014.0
20260831163903 64 286 3.0 7.0 0.00 0.00 0.00 54 1014.0
20260831163841 64 316 2.0 4.0 0.00 0.00 0.00 54 1014.0
20260831163816 64 352 2.0 5.0 0.00 0.00 0.00 55 1014.0
20260831163755 64 269 2.0 5.0 0.00 0.00 0.00 54 1014.0
20260831163718 64 345 2.0 5.0 0.00 0.00 0.00 54 1014.0
20260831163427 64 345 2.0 5.0 0.00 0.00 0.00 55 1014.0
20260831163129 64 11 2.0 5.0 0.00 0.00 0.00 55 1014.0
20260831163055 64 291 3.0 5.0 0.00 0.00 0.00 55 1014.1
20260831163032 64 311 2.0 5.0 0.00 0.00 0.00 54 1014.1
20260831163012 64 250 2.0 5.0 0.00 0.00 0.00 53 1014.1
20260831162950 64 277 1.0 4.0 0.00 0.00 0.00 55 1014.1
20260831162930 64 9 0.0 4.0 0.00 0.00 0.00 54 1014.1
20260831162854 64 0 1.0 4.0 0.00 0.00 0.00 53 1014.1
20260831162603 64 351 0.0 5.0 0.00 0.00 0.00 56 1014.0
20260831162315 63 90 1.0 5.0 0.00 0.00 0.00 56 1014.0
20260831162003 63 207 1.0 5.0 0.00 0.00 0.00 57 1014.0
20260831161710 63 9 2.0 5.0 0.00 0.00 0.00 56 1014.0
20260831161649 62 5 2.0 5.0 0.00 0.00 0.00 57 1014.0
20260831161615 62 344 2.0 5.0 0.00 0.00 0.00 58 1014.0
20260831161317 62 350 1.0 3.0 0.00 0.00 0.00 59 1014.1
20260831161257 62 318 1.0 3.0 0.00 0.00 0.00 59 1014.1
20260831161236 62 316 1.0 3.0 0.00 0.00 0.00 60 1014.1
20260831161202 62 263 1.0 3.0 0.00 0.00 0.00 59 1014.1
20260831161142 62 262 1.0 3.0 0.00 0.00 0.00 58 1014.1
20260831161120 62 352 1.0 3.0 0.00 0.00 0.00 58 1014.1
20260831161058 61 338 1.0 3.0 0.00 0.00 0.00 58 1014.1
20260831161038 61 275 2.0 3.0 0.00 0.00 0.00 57 1014.1
20260831161002 61 252 2.0 3.0 0.00 0.00 0.00 57 1014.1
20260831160942 61 252 2.0 3.0 0.00 0.00 0.00 57 1014.1
20260831160427 61 326 1.0 3.0 0.00 0.00 0.00 59 1014.2
20260831155850 61 323 1.0 3.0 0.00 0.00 0.00 61 1014.2
20260831155829 61 308 1.0 3.0 0.00 0.00 0.00 60 1014.2
20260831155808 61 352 1.0 3.0 0.00 0.00 0.00 61 1014.2
20260831155731 60 5 1.0 3.0 0.00 0.00 0.00 61 1014.1
20260831155713 60 5 1.0 3.0 0.00 0.00 0.00 61 1014.2
20260831155653 60 352 2.0 3.0 0.00 0.00 0.00 61 1014.2
20260831154809 60 261 1.0 4.0 0.00 0.00 0.00 61 1014.3
20260831154707 60 22 1.0 4.0 0.00 0.00 0.00 61 1014.2
20260831154605 60 350 1.0 4.0 0.00 0.00 0.00 62 1014.2
20260831154520 60 290 1.0 4.0 0.00 0.00 0.00 61 1014.3
20260831154404 60 288 0.0 4.0 0.00 0.00 0.00 62 1014.2
20260831154304 60 327 1.0 4.0 0.00 0.00 0.00 62 1014.2
20260831154201 60 349 2.0 4.0 0.00 0.00 0.00 61 1014.2
20260831154110 60 346 2.0 4.0 0.00 0.00 0.00 61 1014.3
20260831154051 60 345 2.0 4.0 0.00 0.00 0.00 61 1014.3
20260831154015 60 0 1.0 4.0 0.00 0.00 0.00 60 1014.3
20260831153954 59 333 1.0 4.0 0.00 0.00 0.00 61 1014.3
20260831153934 59 300 1.0 4.0 0.00 0.00 0.00 61 1014.4
20260831153911 59 338 2.0 4.0 0.00 0.00 0.00 60 1014.3
20260831153258 59 292 1.0 3.0 0.00 0.00 0.00 60 1014.4
20260831153157 59 286 1.0 2.0 0.00 0.00 0.00 61 1014.4
20260831153110 59 321 1.0 3.0 0.00 0.00 0.00 60 1014.4
20260831153033 59 290 1.0 3.0 0.00 0.00 0.00 60 1014.4
20260831153012 59 305 1.0 3.0 0.00 0.00 0.00 61 1014.4
20260831152645 59 352 1.0 3.0 0.00 0.00 0.00 61 1014.4
20260831152534 59 24 1.0 3.0 0.00 0.00 0.00 61 1014.4
20260831152430 59 321 1.0 3.0 0.00 0.00 0.00 65 1014.4
20260831152330 58 346 1.0 3.0 0.00 0.00 0.00 68 1014.4
20260831152256 58 352 1.0 3.0 0.00 0.00 0.00 67 1014.4
20260831152237 58 348 2.0 3.0 0.00 0.00 0.00 67 1014.4
20260831152216 58 316 1.0 3.0 0.00 0.00 0.00 68 1014.4
20260831152140 58 338 1.0 3.0 0.00 0.00 0.00 67 1014.4
20260831152120 58 289 1.0 3.0 0.00 0.00 0.00 68 1014.4
20260831152100 58 296 1.0 3.0 0.00 0.00 0.00 68 1014.4
20260831152038 58 313 1.0 3.0 0.00 0.00 0.00 68 1014.4
20260831152020 58 310 1.0 3.0 0.00 0.00 0.00 69 1014.4
20260831151944 58 313 1.0 3.0 0.00 0.00 0.00 68 1014.3
20260831151925 58 294 2.0 3.0 0.00 0.00 0.00 68 1014.3
20260831151903 58 293 2.0 3.0 0.00 0.00 0.00 67 1014.3
20260831151843 58 284 1.0 3.0 0.00 0.00 0.00 68 1014.3
20260831151822 58 275 1.0 3.0 0.00 0.00 0.00 68 1014.3
20260831151750 58 307 2.0 3.0 0.00 0.00 0.00 68 1014.3
20260831151230 58 302 1.0 3.0 0.00 0.00 0.00 69 1014.3
20260831151209 57 352 1.0 3.0 0.00 0.00 0.00 69 1014.3
20260831151131 57 333 1.0 3.0 0.00 0.00 0.00 69 1014.3
20260831151110 57 332 0.0 2.0 0.00 0.00 0.00 70 1014.3
20260831151049 57 336 0.0 1.0 0.00 0.00 0.00 70 1014.3
20260831151034 57 350 0.0 0.0 0.00 0.00 0.00 70 1014.3
20260831150509 57 350 0.0 0.0 0.00 0.00 0.00 69 1014.3
20260831150449 57 350 0.0 0.0 0.00 0.00 0.00 70 1014.3
20260831150426 57 350 0.0 1.0 0.00 0.00 0.00 70 1014.3
20260831150408 57 350 0.0 1.0 0.00 0.00 0.00 70 1014.3
20260831144800 57 350 0.0 1.0 0.00 0.00 0.00 70 1014.3
20260831144702 57 350 0.0 1.0 0.00 0.00 0.00 69 1014.2
20260831144601 56 290 0.0 0.0 0.00 0.00 0.00 70 1014.3
20260831144505 56 290 0.0 0.0 0.00 0.00 0.00 70 1014.2
20260831144401 56 290 0.0 0.0 0.00 0.00 0.00 70 1014.2
20260831144306 56 290 0.0 0.0 0.00 0.00 0.00 69 1014.2
20260831144244 56 290 0.0 0.0 0.00 0.00 0.00 69 1014.2
20260831144225 56 290 0.0 0.0 0.00 0.00 0.00 69 1014.2
20260831144206 56 290 0.0 0.0 0.00 0.00 0.00 69 1014.2
20260831143903 56 290 0.0 0.0 0.00 0.00 0.00 69 1014.2
20260831143844 56 290 0.0 0.0 0.00 0.00 0.00 69 1014.2
20260831143824 56 290 0.0 0.0 0.00 0.00 0.00 69 1014.1
20260831143802 56 290 0.0 0.0 0.00 0.00 0.00 69 1014.1
20260831143505 55 290 0.0 0.0 0.00 0.00 0.00 69 1014.1
20260831143219 55 290 0.0 0.0 0.00 0.00 0.00 69 1014.1
20260831142853 55 290 0.0 0.0 0.00 0.00 0.00 70 1014.1
20260831142737 54 290 0.0 0.0 0.00 0.00 0.00 70 1014.1
20260831142637 54 290 0.0 0.0 0.00 0.00 0.00 70 1014.0
20260831142617 54 290 0.0 0.0 0.00 0.00 0.00 71 1014.0
20260831142553 54 290 0.0 0.0 0.00 0.00 0.00 72 1014.1
20260831142519 53 290 0.0 0.0 0.00 0.00 0.00 72 1014.1
20260831142500 53 290 0.0 0.0 0.00 0.00 0.00 73 1014.0
20260831142440 53 290 0.0 0.0 0.00 0.00 0.00 73 1014.1
20260831142159 53 290 0.0 0.0 0.00 0.00 0.00 74 1014.0
20260831141858 52 290 0.0 0.0 0.00 0.00 0.00 76 1014.0
20260831141528 52 290 0.0 0.0 0.00 0.00 0.00 77 1014.0
20260831141443 52 290 0.0 0.0 0.00 0.00 0.00 76 1014.0
20260831141401 52 290 0.0 0.0 0.00 0.00 0.00 77 1014.0
20260831141342 51 290 0.0 0.0 0.00 0.00 0.00 77 1014.1
20260831141320 51 290 0.0 0.0 0.00 0.00 0.00 77 1014.0
20260831141300 51 290 0.0 0.0 0.00 0.00 0.00 78 1014.0
20260831141241 51 290 0.0 0.0 0.00 0.00 0.00 78 1014.0
20260831141205 51 290 0.0 0.0 0.00 0.00 0.00 78 1014.0
20260831141146 51 290 0.0 0.0 0.00 0.00 0.00 78 1013.9
20260831140617 50 290 0.0 0.0 0.00 0.00 0.00 79 1014.0
20260831140330 50 290 0.0 0.0 0.00 0.00 0.00 78 1014.0
20260831140021 50 290 0.0 0.0 0.00 0.00 0.00 78 1014.0
20260831135946 50 290 0.0 0.0 0.00 0.00 0.00 79 1014.0
20260831135928 50 290 0.0 0.0 0.00 0.00 0.00 79 1014.0
20260831135603 50 290 0.0 0.0 0.00 0.00 0.00 79 1014.0
20260831135525 50 290 0.0 0.0 0.00 0.00 0.00 78 1014.0
20260831135450 50 290 0.0 0.0 0.00 0.00 0.00 78 1014.0
20260831135431 50 290 0.0 0.0 0.00 0.00 0.00 78 1013.9
20260831135102 50 290 0.0 0.0 0.00 0.00 0.00 78 1013.9
20260831135003 50 290 0.0 0.0 0.00 0.00 0.00 78 1013.9
20260831134903 50 290 0.0 0.0 0.00 0.00 0.00 78 1013.9
20260831134803 50 290 0.0 0.0 0.00 0.00 0.00 78 1013.9
20260831134701 50 290 0.0 0.0 0.00 0.00 0.00 79 1013.9
20260831134603 50 290 0.0 0.0 0.00 0.00 0.00 79 1013.9
20260831134504 50 290 0.0 0.0 0.00 0.00 0.00 79 1013.9
20260831134404 50 290 0.0 0.0 0.00 0.00 0.00 79 1013.9
20260831134302 50 290 0.0 1.0 0.00 0.00 0.00 79 1013.9
20260831134205 50 290 0.0 1.0 0.00 0.00 0.00 79 1013.9
20260831134103 50 290 0.0 1.0 0.00 0.00 0.00 79 1013.9
20260831134002 50 290 0.0 1.0 0.00 0.00 0.00 79 1013.9
20260831133901 50 290 0.0 1.0 0.00 0.00 0.00 79 1013.9
20260831133812 50 290 0.0 1.0 0.00 0.00 0.00 79 1013.9
20260831133749 50 290 0.0 1.0 0.00 0.00 0.00 80 1013.9
20260831133732 50 290 0.0 1.0 0.00 0.00 0.00 80 1013.9
20260831133405 50 290 0.0 1.0 0.00 0.00 0.00 81 1013.9
20260831133303 50 133 0.0 0.0 0.00 0.00 0.00 81 1013.9
20260831133203 49 133 0.0 0.0 0.00 0.00 0.00 81 1013.9
20260831133124 49 133 0.0 0.0 0.00 0.00 0.00 82 1013.9
20260831133104 49 133 0.0 0.0 0.00 0.00 0.00 82 1013.9
20260831133033 49 133 0.0 0.0 0.00 0.00 0.00 82 1013.8
20260831132701 49 133 0.0 0.0 0.00 0.00 0.00 82 1013.8
20260831132603 49 133 0.0 0.0 0.00 0.00 0.00 82 1013.8
20260831132502 49 133 0.0 0.0 0.00 0.00 0.00 82 1013.8
20260831132404 49 133 0.0 0.0 0.00 0.00 0.00 82 1013.8
20260831132324 49 133 0.0 0.0 0.00 0.00 0.00 81 1013.8
20260831132307 49 133 0.0 0.0 0.00 0.00 0.00 81 1013.8
20260831132248 49 133 0.0 0.0 0.00 0.00 0.00 80 1013.8
20260831132231 49 133 0.0 0.0 0.00 0.00 0.00 80 1013.8
20260831132156 49 133 0.0 0.0 0.00 0.00 0.00 80 1013.8
20260831131603 49 133 0.0 0.0 0.00 0.00 0.00 79 1013.8
20260831131503 49 133 0.0 0.0 0.00 0.00 0.00 79 1013.7
20260831131404 49 133 0.0 0.0 0.00 0.00 0.00 79 1013.7
20260831131326 49 133 0.0 0.0 0.00 0.00 0.00 79 1013.7
20260831131308 49 133 0.0 0.0 0.00 0.00 0.00 79 1013.7
20260831131251 49 133 0.0 0.0 0.00 0.00 0.00 79 1013.7
20260831131000 49 133 0.0 0.0 0.00 0.00 0.00 78 1013.7
20260831130929 49 133 0.0 0.0 0.00 0.00 0.00 78 1013.7
20260831130602 49 133 0.0 0.0 0.00 0.00 0.00 78 1013.7
20260831130503 49 133 0.0 0.0 0.00 0.00 0.00 78 1013.7
20260831130417 49 133 0.0 0.0 0.00 0.00 0.00 78 1013.7
20260831130302 49 133 0.0 0.0 0.00 0.00 0.00 78 1013.7
20260831130202 49 133 0.0 0.0 0.00 0.00 0.00 77 1013.7
20260831130100 49 133 0.0 0.0 0.00 0.00 0.00 77 1013.7
20260831130006 49 133 0.0 0.0 0.00 0.00 0.00 76 1013.7
20260831125913 49 133 0.0 0.0 0.00 0.00 0.00 76 1013.7
20260831125804 49 133 0.0 0.0 0.00 0.00 0.00 77 1013.7
20260831125701 49 133 0.0 0.0 0.00 0.00 0.00 76 1013.7
20260831125601 49 133 0.0 0.0 0.00 0.00 0.00 76 1013.7
20260831125503 50 133 0.0 0.0 0.00 0.00 0.00 76 1013.6
20260831125411 50 133 0.0 0.0 0.00 0.00 0.00 76 1013.7
20260831125312 50 133 0.0 0.0 0.00 0.00 0.00 76 1013.7
20260831125251 50 133 0.0 0.0 0.00 0.00 0.00 76 1013.7
20260831125232 50 133 0.0 0.0 0.00 0.00 0.00 76 1013.6
20260831124907 50 133 0.0 0.0 0.00 0.00 0.00 76 1013.7
20260831124803 50 133 0.0 0.0 0.00 0.00 0.00 76 1013.6
20260831124701 50 133 0.0 0.0 0.00 0.00 0.00 76 1013.7
20260831124603 50 133 0.0 0.0 0.00 0.00 0.00 76 1013.7
20260831124502 50 133 0.0 0.0 0.00 0.00 0.00 76 1013.7
20260831124407 50 133 0.0 0.0 0.00 0.00 0.00 76 1013.7
20260831124301 50 133 0.0 0.0 0.00 0.00 0.00 76 1013.7
20260831124235 50 133 0.0 0.0 0.00 0.00 0.00 75 1013.7
20260831124213 50 133 0.0 0.0 0.00 0.00 0.00 75 1013.8
20260831124154 50 133 0.0 0.0 0.00 0.00 0.00 75 1013.7
20260831124135 50 133 0.0 0.0 0.00 0.00 0.00 75 1013.8
20260831123831 50 133 0.0 0.0 0.00 0.00 0.00 75 1013.7
20260831123504 50 133 0.0 0.0 0.00 0.00 0.00 75 1013.7
20260831123416 50 133 0.0 0.0 0.00 0.00 0.00 75 1013.8
20260831123341 50 133 0.0 0.0 0.00 0.00 0.00 75 1013.7
20260831123324 50 133 0.0 0.0 0.00 0.00 0.00 75 1013.7
20260831123304 50 133 0.0 0.0 0.00 0.00 0.00 75 1013.7
20260831123245 50 133 0.0 0.0 0.00 0.00 0.00 75 1013.8
20260831123222 50 133 0.0 0.0 0.00 0.00 0.00 75 1013.7
20260831123152 51 133 0.0 0.0 0.00 0.00 0.00 75 1013.7
20260831122904 51 133 0.0 0.0 0.00 0.00 0.00 75 1013.8
20260831122842 51 133 0.0 0.0 0.00 0.00 0.00 75 1013.7
20260831122537 51 133 0.0 0.0 0.00 0.00 0.00 75 1013.7
20260831122250 51 133 0.0 0.0 0.00 0.00 0.00 75 1013.7
20260831122231 51 133 0.0 0.0 0.00 0.00 0.00 75 1013.7
20260831122210 51 133 0.0 0.0 0.00 0.00 0.00 75 1013.7
20260831122140 51 133 0.0 0.0 0.00 0.00 0.00 75 1013.7
20260831122118 51 133 0.0 0.0 0.00 0.00 0.00 75 1013.7
20260831122100 51 133 0.0 0.0 0.00 0.00 0.00 75 1013.7
20260831121814 51 133 0.0 0.0 0.00 0.00 0.00 75 1013.7
20260831121741 51 133 0.0 0.0 0.00 0.00 0.00 75 1013.7
20260831120953 51 133 0.0 0.0 0.00 0.00 0.00 74 1013.7
20260831120919 51 133 0.0 0.0 0.00 0.00 0.00 74 1013.7
20260831120613 51 133 0.0 0.0 0.00 0.00 0.00 74 1013.7
20260831120552 51 133 0.0 0.0 0.00 0.00 0.00 74 1013.7
20260831120530 51 133 0.0 0.0 0.00 0.00 0.00 74 1013.7
20260831120148 51 133 0.0 0.0 0.00 0.00 0.00 74 1013.7
20260831120029 51 133 0.0 0.0 0.00 0.00 0.00 74 1013.7
20260831115931 51 133 0.0 0.0 0.00 0.00 0.00 75 1013.7
20260831115842 51 133 0.0 0.0 0.00 0.00 0.00 75 1013.7
20260831115729 51 133 0.0 0.0 0.00 0.00 0.00 75 1013.7
20260831115629 51 133 0.0 0.0 0.00 0.00 0.00 75 1013.7
20260831115531 51 133 0.0 0.0 0.00 0.00 0.00 75 1013.7
20260831115429 51 133 0.0 0.0 0.00 0.00 0.00 74 1013.7
20260831115340 51 133 0.0 0.0 0.00 0.00 0.00 74 1013.7
20260831115229 51 133 0.0 0.0 0.00 0.00 0.00 74 1013.7
20260831115129 51 133 0.0 0.0 0.00 0.00 0.00 74 1013.7
20260831115054 51 133 0.0 0.0 0.00 0.00 0.00 74 1013.7
20260831115032 51 133 0.0 0.0 0.00 0.00 0.00 74 1013.7
20260831115013 51 133 0.0 0.0 0.00 0.00 0.00 74 1013.8
20260831114619 51 133 0.0 0.0 0.00 0.00 0.00 73 1013.8
20260831114514 51 133 0.0 0.0 0.00 0.00 0.00 73 1013.8
20260831114403 51 133 0.0 0.0 0.00 0.00 0.00 73 1013.8
20260831114303 51 133 0.0 0.0 0.00 0.00 0.00 73 1013.8
20260831114204 51 133 0.0 0.0 0.00 0.00 0.00 73 1013.8
20260831114102 51 133 0.0 0.0 0.00 0.00 0.00 73 1013.8
20260831114003 51 133 0.0 0.0 0.00 0.00 0.00 73 1013.8
20260831113901 51 133 0.0 0.0 0.00 0.00 0.00 73 1013.8
20260831113803 51 133 0.0 0.0 0.00 0.00 0.00 73 1013.7
20260831113702 51 133 0.0 0.0 0.00 0.00 0.00 74 1013.7
20260831113604 51 133 0.0 0.0 0.00 0.00 0.00 74 1013.6
20260831113515 51 133 0.0 0.0 0.00 0.00 0.00 73 1013.6
20260831113454 51 133 0.0 0.0 0.00 0.00 0.00 73 1013.5
20260831113421 51 133 0.0 0.0 0.00 0.00 0.00 72 1013.5
20260831113403 51 133 0.0 0.0 0.00 0.00 0.00 72 1013.4
20260831113114 51 133 0.0 0.0 0.00 0.00 0.00 73 1013.4
20260831113055 51 133 0.0 0.0 0.00 0.00 0.00 73 1013.4
20260831112752 51 133 0.0 0.0 0.00 0.00 0.00 73 1013.4
20260831112731 51 133 0.0 0.0 0.00 0.00 0.00 73 1013.4
20260831112710 51 133 0.0 0.0 0.00 0.00 0.00 73 1013.4
20260831112651 51 133 0.0 0.0 0.00 0.00 0.00 73 1013.4
20260831112620 51 133 0.0 0.0 0.00 0.00 0.00 73 1013.4
20260831112559 51 133 0.0 0.0 0.00 0.00 0.00 73 1013.4
20260831111734 51 133 0.0 0.0 0.00 0.00 0.00 72 1013.4
20260831111705 51 133 0.0 0.0 0.00 0.00 0.00 72 1013.5
20260831111645 51 133 0.0 0.0 0.00 0.00 0.00 73 1013.5
20260831111624 51 133 0.0 0.0 0.00 0.00 0.00 72 1013.4
20260831111607 51 133 0.0 0.0 0.00 0.00 0.00 72 1013.4
20260831111536 51 133 0.0 0.0 0.00 0.00 0.00 72 1013.5
20260831111516 51 133 0.0 0.0 0.00 0.00 0.00 72 1013.5
20260831111227 51 133 0.0 0.0 0.00 0.00 0.00 72 1013.6
20260831111206 51 133 0.0 0.0 0.00 0.00 0.00 72 1013.6
20260831111129 51 133 0.0 0.0 0.00 0.00 0.00 72 1013.6
20260831110303 51 133 0.0 0.0 0.00 0.00 0.00 72 1013.5
20260831110201 51 133 0.0 0.0 0.00 0.00 0.00 72 1013.6
20260831110128 51 133 0.0 0.0 0.00 0.00 0.00 71 1013.6
20260831110107 51 133 0.0 0.0 0.00 0.00 0.00 71 1013.5
20260831110045 51 133 0.0 0.0 0.00 0.00 0.00 72 1013.5
20260831105702 51 133 0.0 0.0 0.00 0.00 0.00 72 1013.5
20260831105602 51 133 0.0 0.0 0.00 0.00 0.00 72 1013.5
20260831105529 51 133 0.0 0.0 0.00 0.00 0.00 72 1013.5
20260831105505 51 133 0.0 0.0 0.00 0.00 0.00 71 1013.5
20260831105439 51 133 0.0 0.0 0.00 0.00 0.00 72 1013.5
20260831105101 51 133 0.0 0.0 0.00 0.00 0.00 71 1013.5
20260831105002 51 133 0.0 0.0 0.00 0.00 0.00 71 1013.4
20260831104902 51 133 0.0 0.0 0.00 0.00 0.00 71 1013.4
20260831104815 51 133 0.0 0.0 0.00 0.00 0.00 71 1013.4
20260831104701 51 133 0.0 0.0 0.00 0.00 0.00 71 1013.4
20260831104601 51 133 0.0 0.0 0.00 0.00 0.00 71 1013.4
20260831104504 51 133 0.0 0.0 0.00 0.00 0.00 70 1013.4
20260831104401 51 133 0.0 0.0 0.00 0.00 0.00 70 1013.4
20260831104312 51 133 0.0 0.0 0.00 0.00 0.00 71 1013.3
20260831104201 51 133 0.0 0.0 0.00 0.00 0.00 71 1013.4
20260831104101 51 133 0.0 0.0 0.00 0.00 0.00 71 1013.3
20260831104002 52 133 0.0 0.0 0.00 0.00 0.00 71 1013.4
20260831103924 52 133 0.0 0.0 0.00 0.00 0.00 71 1013.4
20260831103904 52 133 0.0 0.0 0.00 0.00 0.00 71 1013.4
20260831103831 52 133 0.0 0.0 0.00 0.00 0.00 71 1013.4
20260831103453 52 133 0.0 0.0 0.00 0.00 0.00 71 1013.5
20260831103339 52 133 0.0 0.0 0.00 0.00 0.00 71 1013.6
20260831103231 52 133 0.0 0.0 0.00 0.00 0.00 71 1013.5
20260831103130 52 133 0.0 0.0 0.00 0.00 0.00 71 1013.5
20260831103058 52 133 0.0 0.0 0.00 0.00 0.00 71 1013.6
20260831103036 52 133 0.0 0.0 0.00 0.00 0.00 71 1013.6
20260831103017 52 133 0.0 0.0 0.00 0.00 0.00 71 1013.6
20260831102945 52 133 0.0 0.0 0.00 0.00 0.00 70 1013.6
20260831102654 52 133 0.0 0.0 0.00 0.00 0.00 71 1013.6
20260831102635 52 133 0.0 0.0 0.00 0.00 0.00 71 1013.6
20260831102613 52 133 0.0 0.0 0.00 0.00 0.00 70 1013.6
20260831102538 52 133 0.0 0.0 0.00 0.00 0.00 71 1013.6
20260831102253 52 133 0.0 0.0 0.00 0.00 0.00 71 1013.6
20260831102001 52 133 0.0 0.0 0.00 0.00 0.00 71 1013.6
20260831101653 52 133 0.0 0.0 0.00 0.00 0.00 71 1013.7
20260831101633 52 133 0.0 0.0 0.00 0.00 0.00 71 1013.6
20260831101302 52 133 0.0 0.0 0.00 0.00 0.00 71 1013.7
20260831101202 52 133 0.0 0.0 0.00 0.00 0.00 71 1013.6
20260831101110 52 133 0.0 0.0 0.00 0.00 0.00 71 1013.6
20260831101050 52 133 0.0 0.0 0.00 0.00 0.00 71 1013.7
20260831101030 52 133 0.0 0.0 0.00 0.00 0.00 71 1013.7
20260831100702 52 133 0.0 0.0 0.00 0.00 0.00 71 1013.7
20260831100636 52 133 0.0 0.0 0.00 0.00 0.00 71 1013.7
20260831100616 52 133 0.0 0.0 0.00 0.00 0.00 71 1013.7
20260831100553 52 133 0.0 0.0 0.00 0.00 0.00 71 1013.7
20260831100250 52 133 0.0 0.0 0.00 0.00 0.00 70 1013.8
20260831100231 52 133 0.0 0.0 0.00 0.00 0.00 70 1013.8
20260831095903 53 133 0.0 0.0 0.00 0.00 0.00 70 1013.8
20260831095803 53 133 0.0 0.0 0.00 0.00 0.00 70 1013.8
20260831095701 53 133 0.0 0.0 0.00 0.00 0.00 70 1013.8
20260831095602 53 133 0.0 0.0 0.00 0.00 0.00 69 1013.8
20260831095503 53 133 0.0 0.0 0.00 0.00 0.00 69 1013.8
20260831095402 53 133 0.0 0.0 0.00 0.00 0.00 70 1013.8
20260831095301 53 133 0.0 0.0 0.00 0.00 0.00 70 1013.8
20260831095228 53 133 0.0 0.0 0.00 0.00 0.00 70 1013.8
20260831095206 53 133 0.0 0.0 0.00 0.00 0.00 69 1013.8
20260831095148 53 133 0.0 0.0 0.00 0.00 0.00 69 1013.8
20260831095129 53 133 0.0 0.0 0.00 0.00 0.00 69 1013.8
20260831095109 53 133 0.0 0.0 0.00 0.00 0.00 69 1013.8
20260831094807 53 133 0.0 0.0 0.00 0.00 0.00 69 1013.8
20260831094744 53 133 0.0 0.0 0.00 0.00 0.00 68 1013.8
20260831094135 53 133 0.0 0.0 0.00 0.00 0.00 67 1013.8
20260831094031 53 133 0.0 0.0 0.00 0.00 0.00 67 1013.8
20260831093929 53 133 0.0 0.0 0.00 0.00 0.00 67 1013.8
20260831093831 53 133 0.0 0.0 0.00 0.00 0.00 68 1013.9
20260831093741 53 133 0.0 0.0 0.00 0.00 0.00 68 1013.9
20260831093530 53 133 0.0 0.0 0.00 0.00 0.00 69 1013.9
20260831093431 53 133 0.0 0.0 0.00 0.00 0.00 68 1013.9
20260831093331 53 133 0.0 0.0 0.00 0.00 0.00 69 1013.9
20260831093239 53 133 0.0 0.0 0.00 0.00 0.00 69 1013.9
20260831093130 53 133 0.0 0.0 0.00 0.00 0.00 69 1014.0
20260831093029 53 133 0.0 0.0 0.00 0.00 0.00 69 1014.0
20260831092931 53 133 0.0 0.0 0.00 0.00 0.00 69 1014.0
20260831092830 53 133 0.0 0.0 0.00 0.00 0.00 69 1014.0
20260831092721 53 133 0.0 0.0 0.00 0.00 0.00 69 1014.0
20260831092700 54 133 0.0 0.0 0.00 0.00 0.00 69 1014.0
20260831092641 54 133 0.0 0.0 0.00 0.00 0.00 69 1014.0
20260831092306 54 133 0.0 0.0 0.00 0.00 0.00 69 1014.0
20260831092214 54 133 0.0 0.0 0.00 0.00 0.00 69 1013.9
20260831092153 54 133 0.0 0.0 0.00 0.00 0.00 69 1013.9
20260831092132 54 133 0.0 0.0 0.00 0.00 0.00 69 1013.9
20260831091841 54 133 0.0 0.0 0.00 0.00 0.00 69 1013.9
20260831091806 54 133 0.0 0.0 0.00 0.00 0.00 69 1013.9
20260831091748 54 133 0.0 0.0 0.00 0.00 0.00 69 1013.9
20260831091729 54 133 0.0 0.0 0.00 0.00 0.00 69 1013.9
20260831091709 54 133 0.0 0.0 0.00 0.00 0.00 69 1013.9
20260831091100 54 133 0.0 0.0 0.00 0.00 0.00 68 1013.9
20260831091004 54 133 0.0 0.0 0.00 0.00 0.00 69 1013.9
20260831090901 54 133 0.0 0.0 0.00 0.00 0.00 68 1013.9
20260831090809 54 133 0.0 0.0 0.00 0.00 0.00 68 1013.9
20260831090735 54 133 0.0 0.0 0.00 0.00 0.00 67 1013.9
20260831090717 54 133 0.0 0.0 0.00 0.00 0.00 67 1013.9
20260831090658 54 133 0.0 0.0 0.00 0.00 0.00 67 1013.9
20260831090403 54 133 0.0 0.0 0.00 0.00 0.00 68 1014.0
20260831090330 54 133 0.0 0.0 0.00 0.00 0.00 68 1014.0
20260831090016 54 133 0.0 0.0 0.00 0.00 0.00 68 1014.0
20260831085948 54 133 0.0 0.0 0.00 0.00 0.00 68 1014.0
20260831085929 54 133 0.0 0.0 0.00 0.00 0.00 68 1014.0
20260831085547 54 133 0.0 0.0 0.00 0.00 0.00 67 1014.0
20260831085517 54 133 0.0 0.0 0.00 0.00 0.00 68 1014.0
20260831085455 54 133 0.0 0.0 0.00 0.00 0.00 68 1014.0
20260831085435 54 133 0.0 0.0 0.00 0.00 0.00 68 1014.0
20260831085130 54 133 0.0 0.0 0.00 0.00 0.00 67 1014.0
20260831085112 54 133 0.0 0.0 0.00 0.00 0.00 67 1014.1
20260831084736 55 133 0.0 0.0 0.00 0.00 0.00 68 1014.0
20260831084634 55 133 0.0 0.0 0.00 0.00 0.00 68 1014.0
20260831084543 55 133 0.0 0.0 0.00 0.00 0.00 68 1014.0
20260831084520 55 133 0.0 0.0 0.00 0.00 0.00 69 1014.0
20260831084501 55 133 0.0 0.0 0.00 0.00 0.00 69 1014.0
20260831084130 55 133 0.0 0.0 0.00 0.00 0.00 69 1014.0
20260831084030 55 133 0.0 0.0 0.00 0.00 0.00 69 1014.0
20260831083931 55 133 0.0 0.0 0.00 0.00 0.00 69 1014.0
20260831083829 55 133 0.0 0.0 0.00 0.00 0.00 69 1014.1
20260831083731 55 133 0.0 0.0 0.00 0.00 0.00 69 1014.0
20260831083629 55 133 0.0 0.0 0.00 0.00 0.00 69 1014.0
20260831083542 55 133 0.0 0.0 0.00 0.00 0.00 69 1014.1
20260831083517 55 133 0.0 0.0 0.00 0.00 0.00 69 1014.1
20260831083458 55 133 0.0 0.0 0.00 0.00 0.00 69 1014.1
20260831083115 55 133 0.0 0.0 0.00 0.00 0.00 69 1014.1
20260831083010 55 133 0.0 0.0 0.00 0.00 0.00 68 1014.0
20260831082908 55 133 0.0 0.0 0.00 0.00 0.00 68 1014.1
20260831082801 55 133 0.0 0.0 0.00 0.00 0.00 68 1014.1
20260831082702 55 133 0.0 0.0 0.00 0.00 0.00 68 1014.1
20260831082601 55 133 0.0 0.0 0.00 0.00 0.00 68 1014.0
20260831082504 55 133 0.0 0.0 0.00 0.00 0.00 67 1014.0
20260831082402 55 133 0.0 0.0 0.00 0.00 0.00 67 1014.0
20260831082301 55 133 0.0 0.0 0.00 0.00 0.00 67 1014.0
20260831082204 55 133 0.0 0.0 0.00 0.00 0.00 67 1014.0
20260831082103 55 133 0.0 0.0 0.00 0.00 0.00 68 1014.0
20260831082042 55 133 0.0 0.0 0.00 0.00 0.00 67 1014.0
20260831082023 55 133 0.0 0.0 0.00 0.00 0.00 67 1014.0
20260831081649 55 133 0.0 0.0 0.00 0.00 0.00 67 1014.0
20260831081546 55 133 0.0 0.0 0.00 0.00 0.00 67 1014.0
20260831081446 55 133 0.0 0.0 0.00 0.00 0.00 67 1014.0
20260831081345 55 133 0.0 0.0 0.00 0.00 0.00 67 1014.1
20260831081254 55 133 0.0 0.0 0.00 0.00 0.00 67 1014.0
20260831081221 55 133 0.0 0.0 0.00 0.00 0.00 66 1014.0
20260831081159 55 133 0.0 0.0 0.00 0.00 0.00 66 1013.9
20260831080830 55 133 0.0 0.0 0.00 0.00 0.00 65 1013.9
20260831080731 56 133 0.0 0.0 0.00 0.00 0.00 65 1014.0
20260831080630 56 133 0.0 0.0 0.00 0.00 0.00 65 1013.9
20260831080527 56 133 0.0 0.0 0.00 0.00 0.00 65 1014.0
20260831080421 56 133 0.0 0.0 0.00 0.00 0.00 65 1014.0
20260831080315 56 133 0.0 0.0 0.00 0.00 0.00 65 1014.0
20260831080215 56 133 0.0 0.0 0.00 0.00 0.00 65 1014.0
20260831080126 56 133 0.0 0.0 0.00 0.00 0.00 65 1014.0
20260831080039 56 133 0.0 0.0 0.00 0.00 0.00 65 1014.0
20260831075713 56 133 0.0 0.0 0.00 0.00 0.00 65 1013.9
20260831075611 56 133 0.0 0.0 0.00 0.00 0.00 65 1014.0
20260831075505 56 133 0.0 0.0 0.00 0.00 0.00 65 1013.9
20260831075404 56 133 0.0 0.0 0.00 0.00 0.00 65 1013.9
20260831075306 56 133 0.0 0.0 0.00 0.00 0.00 64 1014.0
20260831075203 56 133 0.0 0.0 0.00 0.00 0.00 64 1014.0
20260831075102 56 133 0.0 0.0 0.00 0.00 0.00 65 1014.0
20260831075002 56 133 0.0 0.0 0.00 0.00 0.00 64 1013.9
20260831074921 56 133 0.0 0.0 0.00 0.00 0.00 64 1014.0
20260831074900 56 133 0.0 0.0 0.00 0.00 0.00 64 1014.0
20260831074842 56 133 0.0 0.0 0.00 0.00 0.00 64 1014.0
20260831074503 56 133 0.0 0.0 0.00 0.00 0.00 65 1014.0
20260831074402 56 133 0.0 0.0 0.00 0.00 0.00 64 1014.0
20260831074303 56 133 0.0 0.0 0.00 0.00 0.00 64 1014.0
20260831074201 56 133 0.0 0.0 0.00 0.00 0.00 64 1014.0
20260831074102 56 133 0.0 0.0 0.00 0.00 0.00 64 1013.9
20260831074002 56 133 0.0 0.0 0.00 0.00 0.00 64 1013.9
20260831073851 56 133 0.0 0.0 0.00 0.00 0.00 64 1013.9
20260831073750 56 133 0.0 0.0 0.00 0.00 0.00 64 1013.9
20260831073656 56 133 0.0 0.0 0.00 0.00 0.00 65 1013.9
20260831073545 56 133 0.0 0.0 0.00 0.00 0.00 65 1013.9
20260831073516 56 133 0.0 0.0 0.00 0.00 0.00 65 1013.9
20260831073458 56 133 0.0 0.0 0.00 0.00 0.00 65 1013.9
20260831073150 56 133 0.0 0.0 0.00 0.00 0.00 65 1013.9
20260831073127 56 133 0.0 0.0 0.00 0.00 0.00 65 1013.9
20260831073109 56 133 0.0 0.0 0.00 0.00 0.00 65 1013.9
20260831072822 56 133 0.0 0.0 0.00 0.00 0.00 64 1013.9
20260831072748 56 133 0.0 0.0 0.00 0.00 0.00 64 1013.9
20260831072729 56 133 0.0 0.0 0.00 0.00 0.00 64 1013.9
20260831072706 56 133 0.0 0.0 0.00 0.00 0.00 63 1013.9
20260831072646 56 133 0.0 0.0 0.00 0.00 0.00 64 1013.9
20260831072627 56 133 0.0 0.0 0.00 0.00 0.00 64 1013.9
20260831072053 57 133 0.0 0.0 0.00 0.00 0.00 64 1014.0
20260831072035 57 133 0.0 0.0 0.00 0.00 0.00 64 1013.9
20260831072010 57 133 0.0 0.0 0.00 0.00 0.00 64 1013.9
20260831071401 57 133 0.0 0.0 0.00 0.00 0.00 63 1014.0
20260831071303 57 133 0.0 0.0 0.00 0.00 0.00 63 1014.0
20260831071201 57 133 0.0 0.0 0.00 0.00 0.00 63 1013.9
20260831071101 57 133 0.0 0.0 0.00 0.00 0.00 64 1014.0
20260831071002 57 133 0.0 0.0 0.00 0.00 0.00 64 1013.9
20260831070907 57 133 0.0 0.0 0.00 0.00 0.00 64 1014.0
20260831070846 57 133 0.0 0.0 0.00 0.00 0.00 64 1013.9
20260831070826 57 133 0.0 0.0 0.00 0.00 0.00 63 1014.0
20260831070439 57 133 0.0 0.0 0.00 0.00 0.00 63 1013.9
20260831070341 57 133 0.0 0.0 0.00 0.00 0.00 63 1014.0
20260831070240 57 133 0.0 0.0 0.00 0.00 0.00 63 1014.0
20260831070155 58 133 0.0 0.0 0.00 0.00 0.00 63 1014.0
20260831070119 58 133 0.0 0.0 0.00 0.00 0.00 64 1014.0
20260831070058 58 133 0.0 0.0 0.00 0.00 0.00 63 1014.0
20260831065729 58 133 0.0 0.0 0.00 0.00 0.00 63 1014.1
20260831065641 58 133 0.0 0.0 0.00 0.00 0.00 63 1014.1
20260831065531 58 133 0.0 0.0 0.00 0.00 0.00 62 1014.0
20260831065430 58 133 0.0 0.0 0.00 0.00 0.00 62 1014.0
20260831065329 58 133 0.0 0.0 0.00 0.00 0.00 61 1014.1
20260831065230 58 133 0.0 0.0 0.00 0.00 0.00 62 1014.1
20260831065140 58 133 0.0 0.0 0.00 0.00 0.00 61 1014.1
20260831065028 58 133 0.0 0.0 0.00 0.00 0.00 61 1014.1
20260831064930 58 133 0.0 0.0 0.00 0.00 0.00 61 1014.1
20260831064831 58 133 0.0 0.0 0.00 0.00 0.00 62 1014.1
20260831064741 58 133 0.0 0.0 0.00 0.00 0.00 62 1014.0
20260831064704 58 133 0.0 0.0 0.00 0.00 0.00 62 1014.1
20260831064645 58 133 0.0 0.0 0.00 0.00 0.00 62 1014.1
20260831064311 58 133 0.0 0.0 0.00 0.00 0.00 61 1014.1
20260831064249 58 133 0.0 0.0 0.00 0.00 0.00 61 1014.1
20260831064213 58 133 0.0 0.0 0.00 0.00 0.00 61 1014.1
20260831064151 58 133 0.0 0.0 0.00 0.00 0.00 60 1014.1
20260831064134 58 133 0.0 0.0 0.00 0.00 0.00 61 1014.1
20260831063844 58 133 0.0 0.0 0.00 0.00 0.00 61 1014.1
20260831063520 58 133 0.0 0.0 0.00 0.00 0.00 60 1014.0
20260831063453 58 133 0.0 0.0 0.00 0.00 0.00 59 1014.0
20260831063434 58 133 0.0 0.0 0.00 0.00 0.00 59 1014.0
20260831063413 58 133 0.0 0.0 0.00 0.00 0.00 59 1014.0
20260831063340 58 133 0.0 0.0 0.00 0.00 0.00 58 1014.0
20260831063321 58 133 0.0 0.0 0.00 0.00 0.00 59 1014.0
20260831063303 58 133 0.0 0.0 0.00 0.00 0.00 59 1014.0
20260831063242 58 133 0.0 0.0 0.00 0.00 0.00 59 1013.9
20260831062401 58 133 0.0 0.0 0.00 0.00 0.00 61 1014.0
20260831062305 58 133 0.0 0.0 0.00 0.00 0.00 60 1014.0
20260831062203 58 133 0.0 0.0 0.00 0.00 0.00 61 1014.0
20260831062105 59 133 0.0 0.0 0.00 0.00 0.00 63 1014.0
20260831062002 59 133 0.0 0.0 0.00 0.00 0.00 60 1014.0
20260831061902 59 133 0.0 0.0 0.00 0.00 0.00 59 1014.0
20260831061802 59 133 0.0 0.0 0.00 0.00 0.00 60 1014.1
20260831061702 59 133 0.0 0.0 0.00 0.00 0.00 60 1014.0
20260831061602 59 133 0.0 0.0 0.00 0.00 0.00 60 1014.0
20260831061511 59 133 0.0 0.0 0.00 0.00 0.00 60 1014.0
20260831061448 59 133 0.0 0.0 0.00 0.00 0.00 60 1014.0
20260831061429 59 133 0.0 0.0 0.00 0.00 0.00 61 1014.0
20260831061103 59 133 0.0 0.0 0.00 0.00 0.00 61 1014.0
20260831061011 59 133 0.0 0.0 0.00 0.00 0.00 61 1014.0
20260831060950 59 133 0.0 0.0 0.00 0.00 0.00 61 1014.0
20260831060931 59 133 0.0 0.0 0.00 0.00 0.00 59 1014.0
20260831060602 59 133 0.0 0.0 0.00 0.00 0.00 61 1014.0
20260831060505 59 133 0.0 0.0 0.00 0.00 0.00 60 1014.0
20260831060403 59 133 0.0 0.0 0.00 0.00 0.00 60 1014.0
20260831060303 59 133 0.0 0.0 0.00 0.00 0.00 60 1014.0
20260831060201 59 133 0.0 0.0 0.00 0.00 0.00 60 1014.0
20260831060107 59 133 0.0 0.0 0.00 0.00 0.00 60 1014.0
20260831060002 59 133 0.0 0.0 0.00 0.00 0.00 61 1014.0
20260831055857 59 133 0.0 0.0 0.00 0.00 0.00 61 1014.0
20260831055752 60 133 0.0 0.0 0.00 0.00 0.00 61 1014.0
20260831055643 60 133 0.0 0.0 0.00 0.00 0.00 60 1014.0
20260831055540 60 133 0.0 0.0 0.00 0.00 0.00 60 1014.0
20260831055446 60 133 0.0 0.0 0.00 0.00 0.00 63 1014.0
20260831055424 60 133 0.0 0.0 0.00 0.00 0.00 62 1014.0
20260831055403 60 133 0.0 0.0 0.00 0.00 0.00 59 1014.0
20260831055038 60 133 0.0 0.0 0.00 0.00 0.00 60 1014.0
20260831054937 60 133 0.0 0.0 0.00 0.00 0.00 59 1014.0
20260831054831 60 133 0.0 0.0 0.00 0.00 0.00 59 1014.0
20260831054731 60 133 0.0 0.0 0.00 0.00 0.00 59 1014.0
20260831054630 60 133 0.0 0.0 0.00 0.00 0.00 59 1014.0
20260831054532 60 133 0.0 0.0 0.00 0.00 0.00 59 1014.0
20260831054429 60 133 0.0 0.0 0.00 0.00 0.00 60 1014.0
20260831054329 60 133 0.0 0.0 0.00 0.00 0.00 59 1014.0
20260831054230 60 133 0.0 1.0 0.00 0.00 0.00 59 1014.0
20260831054137 60 133 0.0 1.0 0.00 0.00 0.00 59 1014.0
20260831054100 60 133 0.0 1.0 0.00 0.00 0.00 59 1014.0
20260831054041 60 133 0.0 2.0 0.00 0.00 0.00 57 1014.1
20260831054022 60 133 0.0 2.0 0.00 0.00 0.00 57 1014.1
20260831054000 60 133 0.0 2.0 0.00 0.00 0.00 58 1014.1
20260831053700 61 133 0.0 2.0 0.00 0.00 0.00 59 1014.1
20260831053410 61 133 1.0 2.0 0.00 0.00 0.00 57 1014.1
20260831053349 61 132 1.0 2.0 0.00 0.00 0.00 57 1014.2
20260831053331 61 128 1.0 2.0 0.00 0.00 0.00 55 1014.1
20260831053255 61 124 0.0 2.0 0.00 0.00 0.00 56 1014.1
20260831053005 61 115 0.0 1.0 0.00 0.00 0.00 58 1014.1
20260831052945 61 115 0.0 1.0 0.00 0.00 0.00 58 1014.1
20260831052923 61 115 0.0 1.0 0.00 0.00 0.00 58 1014.0
20260831052850 61 115 0.0 1.0 0.00 0.00 0.00 58 1014.1
20260831052602 61 115 0.0 1.0 0.00 0.00 0.00 59 1014.0
20260831052004 61 115 0.0 1.0 0.00 0.00 0.00 58 1014.1
20260831051854 61 115 0.0 1.0 0.00 0.00 0.00 58 1014.1
20260831051744 61 115 0.0 1.0 0.00 0.00 0.00 58 1014.1
20260831051639 61 115 0.0 1.0 0.00 0.00 0.00 58 1014.1
20260831051536 61 115 0.0 1.0 0.00 0.00 0.00 58 1014.1
20260831051438 62 115 0.0 1.0 0.00 0.00 0.00 58 1014.1
20260831051332 62 115 0.0 1.0 0.00 0.00 0.00 58 1014.1
20260831051230 62 115 0.0 1.0 0.00 0.00 0.00 58 1014.1
20260831051130 62 115 0.0 1.0 0.00 0.00 0.00 58 1014.1
20260831051031 62 115 0.0 1.0 0.00 0.00 0.00 58 1014.1
20260831050929 62 115 0.0 1.0 0.00 0.00 0.00 58 1014.2
20260831050831 62 115 0.0 1.0 0.00 0.00 0.00 58 1014.1
20260831050729 62 115 0.0 1.0 0.00 0.00 0.00 58 1014.1
20260831050634 62 115 0.0 1.0 0.00 0.00 0.00 58 1014.1
20260831050531 62 115 0.0 1.0 0.00 0.00 0.00 58 1014.1
20260831050431 62 115 0.0 1.0 0.00 0.00 0.00 58 1014.1
20260831050328 62 115 0.0 1.0 0.00 0.00 0.00 57 1014.1
20260831050231 62 115 0.0 1.0 0.00 0.00 0.00 57 1014.1
20260831050137 62 115 0.0 1.0 0.00 0.00 0.00 58 1014.1
20260831050103 62 115 0.0 1.0 0.00 0.00 0.00 58 1014.1
20260831050040 62 115 0.0 1.0 0.00 0.00 0.00 58 1014.1
20260831045725 62 115 0.0 1.0 0.00 0.00 0.00 56 1014.1
20260831045706 62 115 0.0 0.0 0.00 0.00 0.00 56 1014.1
20260831045635 63 115 0.0 0.0 0.00 0.00 0.00 56 1014.2
20260831045323 63 115 0.0 0.0 0.00 0.00 0.00 57 1014.2
20260831045306 63 115 0.0 0.0 0.00 0.00 0.00 56 1014.1
20260831045246 63 115 0.0 0.0 0.00 0.00 0.00 57 1014.2
20260831044901 63 115 0.0 0.0 0.00 0.00 0.00 57 1014.1
20260831044803 63 115 0.0 0.0 0.00 0.00 0.00 57 1014.1
20260831044702 63 115 0.0 0.0 0.00 0.00 0.00 57 1014.1
20260831044602 63 115 0.0 0.0 0.00 0.00 0.00 57 1014.1
20260831044503 63 115 0.0 0.0 0.00 0.00 0.00 57 1014.1
20260831044403 63 115 0.0 0.0 0.00 0.00 0.00 57 1014.1
20260831044301 63 115 0.0 0.0 0.00 0.00 0.00 56 1014.1
20260831044202 63 115 0.0 0.0 0.00 0.00 0.00 56 1014.1
20260831044104 63 115 0.0 0.0 0.00 0.00 0.00 56 1014.1
20260831044029 63 115 0.0 0.0 0.00 0.00 0.00 56 1014.1
20260831044009 63 115 0.0 0.0 0.00 0.00 0.00 56 1014.1
20260831043953 63 115 0.0 0.0 0.00 0.00 0.00 56 1014.1
20260831043933 64 115 0.0 0.0 0.00 0.00 0.00 56 1014.1
20260831043914 64 115 0.0 0.0 0.00 0.00 0.00 57 1014.1
20260831043311 64 115 0.0 1.0 0.00 0.00 0.00 57 1014.0
20260831043252 64 115 0.0 1.0 0.00 0.00 0.00 57 1014.0
20260831043231 64 115 0.0 1.0 0.00 0.00 0.00 56 1014.0
20260831043159 64 115 0.0 1.0 0.00 0.00 0.00 56 1014.0
20260831043139 64 115 0.0 1.0 0.00 0.00 0.00 55 1014.1
20260831043120 64 115 0.0 1.0 0.00 0.00 0.00 56 1014.1
20260831042833 64 115 0.0 2.0 0.00 0.00 0.00 56 1014.0
20260831042758 64 115 0.0 2.0 0.00 0.00 0.00 56 1014.0
20260831042511 64 115 1.0 2.0 0.00 0.00 0.00 56 1014.0
20260831042452 65 115 1.0 2.0 0.00 0.00 0.00 56 1014.0
20260831042431 65 115 1.0 2.0 0.00 0.00 0.00 55 1014.0
20260831042401 65 115 0.0 2.0 0.00 0.00 0.00 55 1014.0
20260831042243 65 115 1.0 2.0 0.00 0.00 0.00 55 1014.0
20260831042223 65 115 1.0 2.0 0.00 0.00 0.00 55 1014.0
20260831042203 65 115 0.0 2.0 0.00 0.00 0.00 55 1014.0
20260831042142 65 113 0.0 1.0 0.00 0.00 0.00 55 1014.1
20260831041839 65 113 0.0 1.0 0.00 0.00 0.00 55 1014.0
20260831041819 65 113 0.0 1.0 0.00 0.00 0.00 55 1014.0
20260831041758 65 113 0.0 1.0 0.00 0.00 0.00 55 1014.0
20260831041738 65 113 0.0 1.0 0.00 0.00 0.00 55 1014.0
20260831041704 65 113 0.0 1.0 0.00 0.00 0.00 54 1014.1
20260831041645 65 113 0.0 1.0 0.00 0.00 0.00 54 1014.1
20260831040832 66 113 1.0 1.0 0.00 0.00 0.00 54 1014.1
20260831040502 66 112 1.0 1.0 0.00 0.00 0.00 54 1014.0
20260831040404 66 111 1.0 1.0 0.00 0.00 0.00 54 1014.1
20260831040301 66 109 1.0 1.0 0.00 0.00 0.00 53 1014.1
20260831040203 66 109 0.0 1.0 0.00 0.00 0.00 53 1014.1
20260831040100 66 108 0.0 1.0 0.00 0.00 0.00 53 1014.1
20260831040004 66 108 0.0 1.0 0.00 0.00 0.00 53 1014.1
20260831035901 66 108 0.0 1.0 0.00 0.00 0.00 53 1014.0
20260831035804 66 108 0.0 0.0 0.00 0.00 0.00 52 1014.1
20260831035703 67 108 0.0 0.0 0.00 0.00 0.00 52 1014.1
20260831035602 67 108 0.0 0.0 0.00 0.00 0.00 52 1014.1
20260831035502 67 108 0.0 0.0 0.00 0.00 0.00 52 1014.1
20260831035404 67 108 0.0 0.0 0.00 0.00 0.00 52 1014.0
20260831035306 67 108 0.0 0.0 0.00 0.00 0.00 52 1014.0
20260831035203 67 108 0.0 0.0 0.00 0.00 0.00 51 1014.0
20260831035103 67 108 0.0 0.0 0.00 0.00 0.00 51 1014.0
20260831035003 67 108 0.0 0.0 0.00 0.00 0.00 51 1014.0
20260831034902 67 108 0.0 0.0 0.00 0.00 0.00 51 1014.0
20260831034802 67 108 0.0 0.0 0.00 0.00 0.00 51 1014.0
20260831034702 67 108 0.0 0.0 0.00 0.00 0.00 51 1014.0
20260831034605 67 108 0.0 0.0 0.00 0.00 0.00 51 1014.0
20260831034504 67 108 0.0 0.0 0.00 0.00 0.00 51 1014.0
20260831034403 67 108 0.0 0.0 0.00 0.00 0.00 50 1014.0
20260831034303 68 108 0.0 0.0 0.00 0.00 0.00 50 1013.9
20260831034203 68 108 0.0 0.0 0.00 0.00 0.00 50 1014.0
20260831034102 68 108 0.0 0.0 0.00 0.00 0.00 50 1014.0
20260831034001 68 108 0.0 0.0 0.00 0.00 0.00 50 1013.9
20260831033902 68 108 0.0 0.0 0.00 0.00 0.00 50 1014.0
20260831033823 68 108 0.0 0.0 0.00 0.00 0.00 49 1014.0
20260831033804 68 108 0.0 0.0 0.00 0.00 0.00 49 1014.0
20260831033746 68 108 0.0 0.0 0.00 0.00 0.00 49 1014.0
20260831033402 68 108 0.0 0.0 0.00 0.00 0.00 49 1014.0
20260831033302 69 108 0.0 0.0 0.00 0.00 0.00 49 1014.0
20260831033201 69 108 0.0 0.0 0.00 0.00 0.00 49 1014.0
20260831033141 69 108 0.0 0.0 0.00 0.00 0.00 48 1014.0
20260831033108 69 108 0.0 0.0 0.00 0.00 0.00 48 1014.0
20260831033051 69 108 0.0 0.0 0.00 0.00 0.00 48 1014.0
20260831033033 69 108 0.0 0.0 0.00 0.00 0.00 48 1014.0
20260831032746 69 108 0.0 1.0 0.00 0.00 0.00 47 1014.0
20260831032404 69 108 0.0 1.0 0.00 0.00 0.00 47 1014.0
20260831032306 70 108 0.0 1.0 0.00 0.00 0.00 47 1014.0
20260831032222 70 108 0.0 1.0 0.00 0.00 0.00 46 1014.0
20260831032203 70 108 0.0 1.0 0.00 0.00 0.00 46 1013.9
20260831032145 70 108 0.0 1.0 0.00 0.00 0.00 46 1014.0
20260831031831 70 108 0.0 1.0 0.00 0.00 0.00 46 1013.9
20260831031811 70 108 0.0 1.0 0.00 0.00 0.00 45 1013.9
20260831031754 70 108 0.0 0.0 0.00 0.00 0.00 45 1013.9
20260831031733 71 108 0.0 0.0 0.00 0.00 0.00 45 1013.9
20260831031659 71 108 0.0 0.0 0.00 0.00 0.00 45 1013.8
20260831031104 71 108 0.0 0.0 0.00 0.00 0.00 45 1013.8
20260831031015 71 108 0.0 0.0 0.00 0.00 0.00 44 1013.8
20260831030901 71 108 0.0 0.0 0.00 0.00 0.00 44 1013.8
20260831030802 71 108 0.0 0.0 0.00 0.00 0.00 44 1013.9
20260831030723 71 108 0.0 0.0 0.00 0.00 0.00 44 1013.8
20260831030703 71 108 0.0 0.0 0.00 0.00 0.00 44 1013.8
20260831030645 72 108 0.0 0.0 0.00 0.00 0.00 43 1013.8
20260831030301 72 108 0.0 0.0 0.00 0.00 0.00 43 1013.8
20260831030203 72 108 0.0 0.0 0.00 0.00 0.00 43 1013.8
20260831030101 72 108 0.0 1.0 0.00 0.00 0.00 42 1013.8
20260831030009 72 108 0.0 1.0 0.00 0.00 0.00 42 1013.8
20260831025904 72 108 0.0 1.0 0.00 0.00 0.00 42 1013.7
20260831025821 72 108 0.0 1.0 0.00 0.00 0.00 42 1013.7
20260831025758 72 108 0.0 1.0 0.00 0.00 0.00 42 1013.6
20260831025739 73 108 0.0 1.0 0.00 0.00 0.00 42 1013.6
20260831025403 73 108 0.0 1.0 0.00 0.00 0.00 41 1013.6
20260831025306 73 108 0.0 1.0 0.00 0.00 0.00 40 1013.6
20260831025203 73 108 0.0 1.0 0.00 0.00 0.00 40 1013.6
20260831025103 73 108 0.0 1.0 0.00 0.00 0.00 39 1013.6
20260831025007 73 108 0.0 2.0 0.00 0.00 0.00 39 1013.6
20260831024903 73 108 0.0 2.0 0.00 0.00 0.00 39 1013.5
20260831024803 73 108 0.0 2.0 0.00 0.00 0.00 39 1013.5
20260831024701 73 108 0.0 2.0 0.00 0.00 0.00 39 1013.5
20260831024602 73 108 0.0 2.0 0.00 0.00 0.00 39 1013.5
20260831024505 73 108 0.0 2.0 0.00 0.00 0.00 39 1013.5
20260831024402 73 108 0.0 2.0 0.00 0.00 0.00 38 1013.5
20260831024301 73 108 0.0 2.0 0.00 0.00 0.00 38 1013.5
20260831024233 73 108 0.0 2.0 0.00 0.00 0.00 38 1013.4
20260831024212 73 108 0.0 2.0 0.00 0.00 0.00 38 1013.4
20260831024155 74 108 0.0 2.0 0.00 0.00 0.00 38 1013.4
20260831023850 74 107 0.0 2.0 0.00 0.00 0.00 38 1013.5
20260831023830 74 107 1.0 2.0 0.00 0.00 0.00 38 1013.4
20260831023500 74 99 0.0 2.0 0.00 0.00 0.00 38 1013.4
20260831023357 74 118 0.0 2.0 0.00 0.00 0.00 37 1013.4
20260831023258 74 117 0.0 2.0 0.00 0.00 0.00 37 1013.4
20260831023156 74 117 1.0 2.0 0.00 0.00 0.00 37 1013.4
20260831023056 74 117 1.0 2.0 0.00 0.00 0.00 37 1013.4
20260831022958 74 118 1.0 2.0 0.00 0.00 0.00 37 1013.5
20260831022857 74 117 0.0 2.0 0.00 0.00 0.00 37 1013.5
20260831022754 74 119 0.0 2.0 0.00 0.00 0.00 37 1013.5
20260831022710 74 116 0.0 2.0 0.00 0.00 0.00 37 1013.6
20260831022649 74 116 0.0 2.0 0.00 0.00 0.00 37 1013.6
20260831022629 75 119 0.0 2.0 0.00 0.00 0.00 36 1013.6
20260831022321 75 107 1.0 2.0 0.00 0.00 0.00 36 1013.7
20260831022306 75 107 0.0 2.0 0.00 0.00 0.00 36 1013.7
20260831022000 75 103 1.0 3.0 0.00 0.00 0.00 36 1013.7
20260831021925 75 101 0.0 3.0 0.00 0.00 0.00 36 1013.6
20260831021903 75 86 1.0 3.0 0.00 0.00 0.00 36 1013.6
20260831021843 75 96 1.0 3.0 0.00 0.00 0.00 36 1013.7
20260831021823 75 78 1.0 3.0 0.00 0.00 0.00 36 1013.7
20260831021750 75 94 1.0 3.0 0.00 0.00 0.00 36 1013.7
20260831021728 75 107 1.0 3.0 0.00 0.00 0.00 36 1013.7
20260831021706 75 100 1.0 4.0 0.00 0.00 0.00 36 1013.7
20260831020832 76 88 1.0 4.0 0.00 0.00 0.00 35 1013.7
20260831020811 76 56 2.0 4.0 0.00 0.00 0.00 35 1013.7
20260831020746 76 40 1.0 4.0 0.00 0.00 0.00 35 1013.6
20260831020729 76 117 2.0 4.0 0.00 0.00 0.00 35 1013.6
20260831020650 76 84 2.0 4.0 0.00 0.00 0.00 35 1013.7
20260831020629 76 86 1.0 6.0 0.00 0.00 0.00 35 1013.6
20260831020608 76 123 2.0 6.0 0.00 0.00 0.00 35 1013.6
20260831020547 76 97 2.0 6.0 0.00 0.00 0.00 35 1013.5
20260831020241 76 87 0.0 6.0 0.00 0.00 0.00 35 1013.5
20260831015954 76 105 1.0 6.0 0.00 0.00 0.00 35 1013.5
20260831015931 76 78 1.0 6.0 0.00 0.00 0.00 34 1013.5
20260831015911 76 117 2.0 6.0 0.00 0.00 0.00 34 1013.5
20260831015333 77 90 3.0 5.0 0.00 0.00 0.00 34 1013.4
20260831015002 77 117 1.0 4.0 0.00 0.00 0.00 33 1013.4
20260831014903 77 119 2.0 4.0 0.00 0.00 0.00 33 1013.5
20260831014802 77 105 2.0 5.0 0.00 0.00 0.00 32 1013.4
20260831014704 77 126 1.0 5.0 0.00 0.00 0.00 32 1013.5
20260831014603 77 96 1.0 5.0 0.00 0.00 0.00 33 1013.4
20260831014503 77 122 1.0 5.0 0.00 0.00 0.00 32 1013.4
20260831014401 77 128 1.0 5.0 0.00 0.00 0.00 32 1013.4
20260831014303 77 124 1.0 5.0 0.00 0.00 0.00 32 1013.4
20260831014201 77 133 1.0 5.0 0.00 0.00 0.00 32 1013.4
20260831014101 77 130 2.0 5.0 0.00 0.00 0.00 31 1013.4
20260831014001 77 126 3.0 5.0 0.00 0.00 0.00 31 1013.4
20260831013902 77 144 2.0 5.0 0.00 0.00 0.00 31 1013.4
20260831013803 77 148 2.0 4.0 0.00 0.00 0.00 31 1013.4
20260831013703 77 151 1.0 3.0 0.00 0.00 0.00 32 1013.4
20260831013602 77 132 1.0 3.0 0.00 0.00 0.00 32 1013.5
20260831013503 77 53 1.0 4.0 0.00 0.00 0.00 32 1013.4
20260831013404 77 86 1.0 4.0 0.00 0.00 0.00 32 1013.5
20260831013304 77 35 2.0 4.0 0.00 0.00 0.00 32 1013.5
20260831013201 78 101 2.0 4.0 0.00 0.00 0.00 32 1013.6
20260831013103 77 84 2.0 4.0 0.00 0.00 0.00 31 1013.6
20260831013039 78 90 2.0 4.0 0.00 0.00 0.00 32 1013.6
20260831013002 78 44 2.0 4.0 0.00 0.00 0.00 31 1013.6
20260831012940 78 130 2.0 4.0 0.00 0.00 0.00 32 1013.6
20260831012920 78 134 2.0 4.0 0.00 0.00 0.00 31 1013.6
20260831012858 78 136 1.0 4.0 0.00 0.00 0.00 32 1013.6
20260831012835 78 103 1.0 3.0 0.00 0.00 0.00 32 1013.6
20260831012757 78 131 1.0 3.0 0.00 0.00 0.00 31 1013.6
20260831012737 78 131 1.0 3.0 0.00 0.00 0.00 32 1013.6
20260831012217 78 90 1.0 3.0 0.00 0.00 0.00 31 1013.6
20260831012140 78 126 1.0 3.0 0.00 0.00 0.00 32 1013.6
20260831012116 78 87 2.0 3.0 0.00 0.00 0.00 32 1013.6
20260831012055 78 110 1.0 5.0 0.00 0.00 0.00 32 1013.6
20260831011805 78 71 2.0 5.0 0.00 0.00 0.00 32 1013.6
20260831011501 78 140 2.0 5.0 0.00 0.00 0.00 32 1013.6
20260831011211 78 72 2.0 5.0 0.00 0.00 0.00 31 1013.5
20260831011149 78 120 3.0 5.0 0.00 0.00 0.00 31 1013.5
20260831010801 78 173 2.0 5.0 0.00 0.00 0.00 31 1013.5
20260831010703 78 132 2.0 5.0 0.00 0.00 0.00 31 1013.5
20260831010601 78 157 1.0 7.0 0.00 0.00 0.00 32 1013.5
20260831010504 78 72 1.0 7.0 0.00 0.00 0.00 32 1013.5
20260831010416 78 85 2.0 7.0 0.00 0.00 0.00 32 1013.6
20260831010303 78 86 2.0 7.0 0.00 0.00 0.00 32 1013.5
20260831010201 78 111 2.0 7.0 0.00 0.00 0.00 32 1013.6
20260831010000 78 129 3.0 7.0 0.00 0.00 0.00 31 1013.6
20260831005914 78 141 4.0 7.0 0.00 0.00 0.00 31 1013.6
20260831005801 78 137 4.0 7.0 0.00 0.00 0.00 31 1013.6
20260831005703 78 145 3.0 7.0 0.00 0.00 0.00 31 1013.6
20260831005601 78 144 2.0 7.0 0.00 0.00 0.00 31 1013.6
20260831005501 78 138 2.0 6.0 0.00 0.00 0.00 31 1013.6
20260831005413 78 121 1.0 6.0 0.00 0.00 0.00 32 1013.7
20260831005301 78 157 1.0 6.0 0.00 0.00 0.00 32 1013.6
20260831005159 78 91 2.0 6.0 0.00 0.00 0.00 32 1013.6
20260831005059 78 113 3.0 6.0 0.00 0.00 0.00 32 1013.7
20260831004958 78 84 3.0 6.0 0.00 0.00 0.00 32 1013.6
20260831004908 78 126 2.0 6.0 0.00 0.00 0.00 32 1013.6
20260831004758 78 113 1.0 3.0 0.00 0.00 0.00 32 1013.6
20260831004657 78 84 1.0 3.0 0.00 0.00 0.00 32 1013.6
20260831004546 78 42 1.0 3.0 0.00 0.00 0.00 32 1013.6
20260831004446 78 126 1.0 3.0 0.00 0.00 0.00 31 1013.6
20260831004345 78 71 1.0 3.0 0.00 0.00 0.00 32 1013.6
20260831004244 78 11 1.0 3.0 0.00 0.00 0.00 33 1013.6
20260831004144 78 40 2.0 3.0 0.00 0.00 0.00 31 1013.7
20260831004044 78 45 1.0 3.0 0.00 0.00 0.00 31 1013.7
20260831003943 78 82 1.0 3.0 0.00 0.00 0.00 32 1013.6
20260831003843 78 15 1.0 4.0 0.00 0.00 0.00 32 1013.7
20260831003811 78 90 1.0 4.0 0.00 0.00 0.00 32 1013.6
20260831003747 78 55 2.0 4.0 0.00 0.00 0.00 31 1013.6
20260831003727 78 67 1.0 4.0 0.00 0.00 0.00 31 1013.7
20260831003703 78 76 1.0 4.0 0.00 0.00 0.00 32 1013.7
20260831003355 78 53 2.0 4.0 0.00 0.00 0.00 30 1013.6
20260831003334 78 90 2.0 4.0 0.00 0.00 0.00 31 1013.6
20260831003312 79 76 2.0 4.0 0.00 0.00 0.00 31 1013.7
20260831003249 79 103 2.0 4.0 0.00 0.00 0.00 31 1013.7
20260831002707 79 115 3.0 4.0 0.00 0.00 0.00 30 1013.7
20260831002644 79 139 2.0 4.0 0.00 0.00 0.00 31 1013.7
20260831002622 79 151 1.0 4.0 0.00 0.00 0.00 31 1013.7
20260831002233 79 15 2.0 4.0 0.00 0.00 0.00 32 1013.8
20260831002132 79 15 2.0 4.0 0.00 0.00 0.00 33 1013.7
20260831002031 79 53 2.0 4.0 0.00 0.00 0.00 32 1013.8
20260831001930 79 74 2.0 4.0 0.00 0.00 0.00 31 1013.8
20260831001830 79 76 2.0 4.0 0.00 0.00 0.00 31 1013.8
20260831001755 79 45 2.0 4.0 0.00 0.00 0.00 31 1013.8
20260831001734 79 33 2.0 4.0 0.00 0.00 0.00 31 1013.8
20260831001711 79 65 2.0 4.0 0.00 0.00 0.00 32 1013.8
20260831001649 79 11 1.0 4.0 0.00 0.00 0.00 31 1013.7
20260831001613 79 193 2.0 4.0 0.00 0.00 0.00 31 1013.8
20260831001551 79 196 2.0 4.0 0.00 0.00 0.00 31 1013.8
20260831001530 79 69 2.0 4.0 0.00 0.00 0.00 31 1013.8
20260831001507 79 83 2.0 4.0 0.00 0.00 0.00 32 1013.8
20260831001446 79 338 1.0 4.0 0.00 0.00 0.00 32 1013.8
20260831001410 79 17 1.0 4.0 0.00 0.00 0.00 31 1013.8
20260831001351 79 17 2.0 4.0 0.00 0.00 0.00 30 1013.9
20260831001329 79 109 2.0 4.0 0.00 0.00 0.00 31 1013.8
20260831001039 79 142 1.0 3.0 0.00 0.00 0.00 30 1013.9
20260831001001 79 130 1.0 3.0 0.00 0.00 0.00 31 1013.8
20260831000940 79 164 1.0 3.0 0.00 0.00 0.00 31 1013.8
20260831000425 79 66 1.0 4.0 0.00 0.00 0.00 31 1013.9
20260830235851 79 186 1.0 4.0 0.00 0.00 0.00 31 1013.9
20260830235828 78 263 2.0 4.0 0.00 0.00 0.00 31 1013.9
20260830235210 79 352 2.0 4.0 0.00 0.00 0.00 32 1014.0
20260830235110 79 9 2.0 4.0 0.00 0.00 0.00 31 1013.9
20260830235008 79 67 1.0 3.0 0.00 0.00 0.00 32 1014.0
20260830234908 79 13 1.0 6.0 0.00 0.00 0.00 31 1014.0
20260830234808 79 290 1.0 6.0 0.00 0.00 0.00 32 1014.0
20260830234707 79 292 1.0 6.0 0.00 0.00 0.00 31 1014.0
20260830234608 78 306 1.0 6.0 0.00 0.00 0.00 32 1014.0
20260830234536 78 311 2.0 6.0 0.00 0.00 0.00 33 1014.1
20260830234510 78 316 2.0 6.0 0.00 0.00 0.00 33 1014.0
20260830234435 78 340 1.0 6.0 0.00 0.00 0.00 33 1014.1
20260830234105 78 20 2.0 6.0 0.00 0.00 0.00 32 1014.1
20260830234001 78 5 2.0 6.0 0.00 0.00 0.00 32 1014.1
20260830233902 78 5 2.0 4.0 0.00 0.00 0.00 33 1014.1
20260830233806 78 352 2.0 4.0 0.00 0.00 0.00 33 1014.1
20260830233745 78 18 2.0 4.0 0.00 0.00 0.00 32 1014.1
20260830233721 78 50 2.0 7.0 0.00 0.00 0.00 32 1014.1
20260830233700 78 68 2.0 7.0 0.00 0.00 0.00 32 1014.2
20260830233634 78 277 2.0 7.0 0.00 0.00 0.00 31 1014.2
20260830233558 78 5 2.0 7.0 0.00 0.00 0.00 31 1014.2
20260830233536 78 333 2.0 7.0 0.00 0.00 0.00 31 1014.2
20260830233515 78 15 2.0 7.0 0.00 0.00 0.00 33 1014.2
20260830233453 78 333 3.0 7.0 0.00 0.00 0.00 32 1014.2
20260830233147 78 19 4.0 7.0 0.00 0.00 0.00 32 1014.2
20260830232630 78 59 1.0 4.0 0.00 0.00 0.00 31 1014.2
20260830232604 78 333 0.0 4.0 0.00 0.00 0.00 32 1014.2
20260830232530 78 279 1.0 4.0 0.00 0.00 0.00 31 1014.3
20260830232508 78 301 1.0 5.0 0.00 0.00 0.00 32 1014.3
20260830232449 78 261 1.0 5.0 0.00 0.00 0.00 31 1014.3
20260830232425 78 232 1.0 5.0 0.00 0.00 0.00 31 1014.3
20260830232122 77 227 2.0 5.0 0.00 0.00 0.00 32 1014.3
20260830232103 77 221 2.0 5.0 0.00 0.00 0.00 32 1014.3
20260830232041 77 13 2.0 5.0 0.00 0.00 0.00 31 1014.3
20260830232020 77 352 2.0 5.0 0.00 0.00 0.00 33 1014.4
20260830231954 77 49 3.0 5.0 0.00 0.00 0.00 32 1014.4
20260830231918 77 11 2.0 5.0 0.00 0.00 0.00 32 1014.4
20260830231402 77 302 2.0 5.0 0.00 0.00 0.00 32 1014.4
20260830231057 77 78 3.0 5.0 0.00 0.00 0.00 33 1014.4
20260830231034 77 44 2.0 4.0 0.00 0.00 0.00 31 1014.4
20260830231012 78 0 2.0 4.0 0.00 0.00 0.00 32 1014.4
20260830230722 78 13 2.0 4.0 0.00 0.00 0.00 32 1014.5
20260830230643 78 348 2.0 4.0 0.00 0.00 0.00 31 1014.4
20260830230355 78 39 1.0 4.0 0.00 0.00 0.00 31 1014.5
20260830225753 78 316 2.0 7.0 0.00 0.00 0.00 33 1014.5
20260830225731 78 340 2.0 7.0 0.00 0.00 0.00 31 1014.5
20260830225401 78 297 2.0 8.0 0.00 0.00 0.00 34 1014.5
20260830225316 78 298 3.0 8.0 0.00 0.00 0.00 32 1014.5
20260830225200 78 315 3.0 8.0 0.00 0.00 0.00 32 1014.6
20260830225101 78 298 4.0 8.0 0.00 0.00 0.00 32 1014.6
20260830225001 78 286 2.0 8.0 0.00 0.00 0.00 31 1014.5
20260830224900 78 246 2.0 8.0 0.00 0.00 0.00 32 1014.6
20260830224811 78 264 3.0 8.0 0.00 0.00 0.00 32 1014.6
20260830224701 78 309 4.0 8.0 0.00 0.00 0.00 33 1014.7
20260830224603 78 352 2.0 8.0 0.00 0.00 0.00 33 1014.6
20260830224542 78 312 2.0 7.0 0.00 0.00 0.00 32 1014.6
20260830224513 78 345 3.0 7.0 0.00 0.00 0.00 33 1014.6
20260830224453 78 289 3.0 7.0 0.00 0.00 0.00 33 1014.7
20260830224416 78 344 2.0 7.0 0.00 0.00 0.00 34 1014.8
20260830224353 78 5 3.0 7.0 0.00 0.00 0.00 33 1014.7
20260830223807 78 263 2.0 5.0 0.00 0.00 0.00 33 1014.7
20260830223654 78 293 2.0 5.0 0.00 0.00 0.00 33 1014.8
20260830223546 78 5 2.0 5.0 0.00 0.00 0.00 33 1014.8
20260830223446 78 0 2.0 4.0 0.00 0.00 0.00 33 1014.9
20260830223345 78 36 2.0 4.0 0.00 0.00 0.00 33 1014.9
20260830223245 78 44 1.0 4.0 0.00 0.00 0.00 32 1014.9
20260830223144 78 350 1.0 3.0 0.00 0.00 0.00 31 1014.9
20260830223108 78 236 1.0 3.0 0.00 0.00 0.00 31 1014.9
20260830223044 78 0 1.0 3.0 0.00 0.00 0.00 30 1014.9
20260830223025 78 0 1.0 6.0 0.00 0.00 0.00 30 1015.0
20260830222638 78 306 2.0 6.0 0.00 0.00 0.00 31 1015.0
20260830222531 78 283 1.0 6.0 0.00 0.00 0.00 31 1015.1
20260830222430 78 219 0.0 6.0 0.00 0.00 0.00 32 1015.1
20260830222329 78 106 0.0 6.0 0.00 0.00 0.00 31 1015.0
20260830222230 78 179 1.0 6.0 0.00 0.00 0.00 31 1015.1
20260830222129 78 179 2.0 6.0 0.00 0.00 0.00 30 1015.1
20260830222029 78 177 3.0 7.0 0.00 0.00 0.00 31 1015.1
20260830221929 78 180 3.0 7.0 0.00 0.00 0.00 32 1015.1
20260830221829 78 178 4.0 7.0 0.00 0.00 0.00 31 1015.1
20260830221729 78 212 4.0 7.0 0.00 0.00 0.00 31 1015.1
20260830221633 78 161 2.0 7.0 0.00 0.00 0.00 32 1015.1
20260830221600 78 148 2.0 7.0 0.00 0.00 0.00 32 1015.1
20260830221536 78 180 3.0 7.0 0.00 0.00 0.00 31 1015.2
20260830221513 78 141 4.0 7.0 0.00 0.00 0.00 31 1015.2
20260830221128 78 171 4.0 7.0 0.00 0.00 0.00 32 1015.2
20260830221057 78 158 4.0 7.0 0.00 0.00 0.00 32 1015.1
20260830221033 78 161 3.0 8.0 0.00 0.00 0.00 33 1015.2
20260830221013 77 209 2.0 9.0 0.00 0.00 0.00 33 1015.2
20260830220624 77 255 2.0 9.0 0.00 0.00 0.00 32 1015.2
20260830220524 77 176 4.0 9.0 0.00 0.00 0.00 33 1015.3
20260830220424 77 124 4.0 9.0 0.00 0.00 0.00 32 1015.3
20260830220332 77 122 4.0 9.0 0.00 0.00 0.00 32 1015.3
20260830220255 77 159 3.0 9.0 0.00 0.00 0.00 33 1015.3
20260830220231 77 162 4.0 9.0 0.00 0.00 0.00 33 1015.3
20260830220211 77 245 3.0 9.0 0.00 0.00 0.00 33 1015.3
20260830220146 77 251 2.0 8.0 0.00 0.00 0.00 34 1015.3
20260830215842 77 301 2.0 8.0 0.00 0.00 0.00 33 1015.4
20260830215821 77 238 2.0 8.0 0.00 0.00 0.00 34 1015.4
20260830215528 77 165 3.0 10.0 0.00 0.00 0.00 33 1015.4
20260830215503 76 142 3.0 10.0 0.00 0.00 0.00 33 1015.4
20260830215118 76 183 5.0 10.0 0.00 0.00 0.00 33 1015.5
20260830215018 77 163 4.0 10.0 0.00 0.00 0.00 34 1015.5
20260830214945 76 172 3.0 10.0 0.00 0.00 0.00 35 1015.6
20260830214920 76 159 3.0 10.0 0.00 0.00 0.00 34 1015.5
20260830214844 76 244 5.0 10.0 0.00 0.00 0.00 33 1015.6
20260830214513 77 267 3.0 8.0 0.00 0.00 0.00 34 1015.5
20260830214412 77 271 3.0 8.0 0.00 0.00 0.00 35 1015.7
20260830214311 77 257 3.0 8.0 0.00 0.00 0.00 34 1015.5
20260830214211 77 267 4.0 8.0 0.00 0.00 0.00 33 1015.7
20260830214110 77 257 3.0 8.0 0.00 0.00 0.00 34 1015.7
20260830214038 77 263 1.0 6.0 0.00 0.00 0.00 34 1015.6
20260830214016 77 129 2.0 6.0 0.00 0.00 0.00 33 1015.7
20260830213955 77 157 2.0 6.0 0.00 0.00 0.00 33 1015.7
20260830213608 76 208 3.0 7.0 0.00 0.00 0.00 35 1015.7
20260830213507 76 171 3.0 7.0 0.00 0.00 0.00 35 1015.7
20260830213406 76 213 3.0 7.0 0.00 0.00 0.00 34 1015.7
20260830213306 76 180 2.0 7.0 0.00 0.00 0.00 35 1015.7
20260830213205 76 281 2.0 7.0 0.00 0.00 0.00 36 1015.7
20260830213105 76 0 2.0 7.0 0.00 0.00 0.00 34 1015.8
20260830213006 76 186 3.0 7.0 0.00 0.00 0.00 34 1015.8
20260830212905 76 69 3.0 7.0 0.00 0.00 0.00 34 1015.9
20260830212832 76 160 2.0 7.0 0.00 0.00 0.00 35 1015.9
20260830212754 76 258 1.0 6.0 0.00 0.00 0.00 34 1015.9
20260830212733 76 225 2.0 6.0 0.00 0.00 0.00 34 1015.8
20260830212405 76 173 3.0 6.0 0.00 0.00 0.00 36 1015.9
20260830212306 76 268 3.0 9.0 0.00 0.00 0.00 36 1015.9
20260830212204 76 286 2.0 9.0 0.00 0.00 0.00 37 1015.9
20260830212101 76 260 2.0 9.0 0.00 0.00 0.00 37 1015.9
20260830212003 76 285 3.0 9.0 0.00 0.00 0.00 37 1015.8
20260830211902 76 279 3.0 9.0 0.00 0.00 0.00 35 1015.8
20260830211802 76 337 3.0 9.0 0.00 0.00 0.00 36 1015.9
20260830211701 76 314 2.0 9.0 0.00 0.00 0.00 37 1015.8
20260830211615 76 14 4.0 9.0 0.00 0.00 0.00 36 1015.9
20260830211553 76 251 5.0 9.0 0.00 0.00 0.00 37 1015.8
20260830211530 76 283 4.0 9.0 0.00 0.00 0.00 36 1015.8
20260830211202 76 229 2.0 7.0 0.00 0.00 0.00 37 1015.9
20260830211100 76 290 3.0 7.0 0.00 0.00 0.00 37 1015.9
20260830211001 76 304 3.0 7.0 0.00 0.00 0.00 37 1015.9
20260830210902 76 25 2.0 8.0 0.00 0.00 0.00 36 1015.9